BAW2X KSFO-EGLL

Flight info

Callsign BAW2X
Flight time 9h 53m
Altitude 33000
Route SNTNA2 ORRCA Q120 GALLI DCT BAM DCT DNW/N0491F350 DCT DIK Q945 SEGAP DCT KAIIN DCT 56N090W 61N080W/N0493F370 65N070W/M085F370 DCT DARUB DCT 67N050W 66N040W 64N030W 62N020W/M085F390 DCT ERAKA/N0491F390 DCT ETSOM DCT AKOMU DCT VAMEB DCT NUGRA
Aircraft A388/J-SADE2E3FGHIJ3J4J5M1RWXY/LB1D1

Departure

Time 2026-05-05 08:28
Airport San Francisco International Airport (KSFO)

Arrival

Time 2026-05-05 18:21
Airport London Heathrow Airport (EGLL)
Time Latitude Longitude Altitude Speed Heading
2026-05-05 07:02 37.61840 -122.39101 22 ft 0 kts 206°
2026-05-05 08:09 37.61850 -122.39094 27 ft 4 kts 218°
2026-05-05 08:10 37.61868 -122.39075 26 ft 3 kts 216°
2026-05-05 08:10 37.61882 -122.39057 26 ft 4 kts 250°
2026-05-05 08:10 37.61883 -122.39030 27 ft 4 kts 282°
2026-05-05 08:10 37.61875 -122.39002 26 ft 2 kts 297°
2026-05-05 08:11 37.61874 -122.39000 26 ft 1 kts 297°
2026-05-05 08:15 37.61876 -122.39003 26 ft 0 kts 297°
2026-05-05 08:16 37.61884 -122.39022 25 ft 7 kts 296°
2026-05-05 08:16 37.61910 -122.39093 27 ft 10 kts 297°
2026-05-05 08:16 37.61940 -122.39166 25 ft 8 kts 297°
2026-05-05 08:17 37.61965 -122.39225 25 ft 7 kts 298°
2026-05-05 08:17 37.61990 -122.39281 25 ft 7 kts 304°
2026-05-05 08:17 37.62027 -122.39306 25 ft 7 kts 357°
2026-05-05 08:17 37.62083 -122.39294 22 ft 10 kts 18°
2026-05-05 08:18 37.62159 -122.39254 20 ft 13 kts 27°
2026-05-05 08:18 37.62235 -122.39204 25 ft 11 kts 30°
2026-05-05 08:18 37.62288 -122.39142 24 ft 11 kts 57°
2026-05-05 08:18 37.62320 -122.39058 21 ft 10 kts 68°
2026-05-05 08:19 37.62341 -122.38976 22 ft 10 kts 82°
2026-05-05 08:19 37.62328 -122.38893 24 ft 10 kts 112°
2026-05-05 08:19 37.62293 -122.38802 22 ft 13 kts 116°
2026-05-05 08:19 37.62248 -122.38693 26 ft 14 kts 118°
2026-05-05 08:20 37.62203 -122.38590 27 ft 12 kts 118°
2026-05-05 08:20 37.62166 -122.38498 31 ft 11 kts 117°
2026-05-05 08:20 37.62129 -122.38410 27 ft 11 kts 118°
2026-05-05 08:20 37.62092 -122.38323 27 ft 12 kts 118°
2026-05-05 08:21 37.62049 -122.38223 28 ft 14 kts 118°
2026-05-05 08:21 37.61998 -122.38101 27 ft 17 kts 118°
2026-05-05 08:21 37.61939 -122.37980 26 ft 15 kts 131°
2026-05-05 08:21 37.61868 -122.37903 31 ft 13 kts 146°
2026-05-05 08:22 37.61816 -122.37822 25 ft 12 kts 112°
2026-05-05 08:22 37.61782 -122.37718 26 ft 13 kts 112°
2026-05-05 08:22 37.61749 -122.37612 28 ft 13 kts 110°
2026-05-05 08:22 37.61715 -122.37497 30 ft 15 kts 115°
2026-05-05 08:23 37.61670 -122.37384 28 ft 15 kts 118°
2026-05-05 08:23 37.61614 -122.37252 28 ft 17 kts 118°
2026-05-05 08:23 37.61558 -122.37122 27 ft 18 kts 118°
2026-05-05 08:23 37.61502 -122.36991 27 ft 16 kts 119°
2026-05-05 08:24 37.61437 -122.36886 31 ft 15 kts 131°
2026-05-05 08:24 37.61375 -122.36785 29 ft 14 kts 122°
2026-05-05 08:24 37.61327 -122.36683 26 ft 13 kts 120°
2026-05-05 08:24 37.61282 -122.36580 23 ft 16 kts 117°
2026-05-05 08:25 37.61232 -122.36452 23 ft 15 kts 118°
2026-05-05 08:25 37.61188 -122.36349 27 ft 12 kts 118°
2026-05-05 08:25 37.61149 -122.36260 27 ft 11 kts 118°
2026-05-05 08:25 37.61113 -122.36177 27 ft 11 kts 119°
2026-05-05 08:26 37.61077 -122.36095 28 ft 11 kts 118°
2026-05-05 08:26 37.61050 -122.36005 26 ft 11 kts 89°
2026-05-05 08:26 37.61087 -122.35910 24 ft 13 kts 43°
2026-05-05 08:26 37.61148 -122.35870 27 ft 9 kts 21°
2026-05-05 08:27 37.61176 -122.35872 27 ft 2 kts 319°
2026-05-05 08:27 37.61178 -122.35876 29 ft 0 kts 302°
2026-05-05 08:27 37.61181 -122.35881 29 ft 1 kts 302°
2026-05-05 08:27 37.61240 -122.36010 26 ft 48 kts 300°
2026-05-05 08:28 37.61510 -122.36650 28 ft 113 kts 297°
2026-05-05 08:28 37.61954 -122.37704 31 ft 155 kts 297°
2026-05-05 08:28 37.62504 -122.38990 254 ft 166 kts 297°
2026-05-05 08:28 37.63040 -122.40242 840 ft 161 kts 298°
2026-05-05 08:29 37.63576 -122.41496 1342 ft 163 kts 298°
2026-05-05 08:29 37.64109 -122.42736 1781 ft 166 kts 298°
2026-05-05 08:29 37.64695 -122.44094 1916 ft 183 kts 298°
2026-05-05 08:30 37.65986 -122.47079 2143 ft 205 kts 298°
2026-05-05 08:30 37.66690 -122.48712 2224 ft 223 kts 298°
2026-05-05 08:30 37.67463 -122.50492 2509 ft 240 kts 302°
2026-05-05 08:30 37.68692 -122.51979 2924 ft 252 kts 332°
2026-05-05 08:31 37.70400 -122.52520 3550 ft 260 kts 357°
2026-05-05 08:31 37.72222 -122.52548 4190 ft 263 kts 357°
2026-05-05 08:31 37.74068 -122.52599 4840 ft 267 kts 357°
2026-05-05 08:31 37.75910 -122.52665 5517 ft 268 kts 357°
2026-05-05 08:32 37.77766 -122.52737 6266 ft 267 kts 359°
2026-05-05 08:32 37.79587 -122.52345 6909 ft 269 kts 24°
2026-05-05 08:32 37.81084 -122.50934 7551 ft 273 kts 50°
2026-05-05 08:32 37.81986 -122.48828 8228 ft 276 kts 65°
2026-05-05 08:33 37.82736 -122.46568 8865 ft 278 kts 65°
2026-05-05 08:33 37.83518 -122.44328 9521 ft 279 kts 59°
2026-05-05 08:33 37.84573 -122.42265 10137 ft 279 kts 49°
2026-05-05 08:33 37.85884 -122.40377 10389 ft 294 kts 46°
2026-05-05 08:34 37.87282 -122.38398 10547 ft 310 kts 46°
2026-05-05 08:34 37.88747 -122.36300 10725 ft 324 kts 47°
2026-05-05 08:34 37.90225 -122.34169 11253 ft 326 kts 47°
2026-05-05 08:34 37.91722 -122.32006 11833 ft 327 kts 47°
2026-05-05 08:35 37.93217 -122.29844 12381 ft 328 kts 47°
2026-05-05 08:35 37.94714 -122.27678 13066 ft 325 kts 47°
2026-05-05 08:35 37.96216 -122.25510 13552 ft 329 kts 47°
2026-05-05 08:35 37.97727 -122.23326 14131 ft 329 kts 47°
2026-05-05 08:36 37.99243 -122.21136 14622 ft 331 kts 47°
2026-05-05 08:36 38.00763 -122.18937 15115 ft 333 kts 47°
2026-05-05 08:36 38.02291 -122.16723 15605 ft 334 kts 48°
2026-05-05 08:36 38.03806 -122.14527 16092 ft 335 kts 48°
2026-05-05 08:37 38.05343 -122.12298 16568 ft 337 kts 49°
2026-05-05 08:37 38.06888 -122.10055 17024 ft 339 kts 49°
2026-05-05 08:37 38.08444 -122.07794 17494 ft 340 kts 49°
2026-05-05 08:37 38.10001 -122.05531 17943 ft 342 kts 49°
2026-05-05 08:38 38.11572 -122.03245 18382 ft 344 kts 49°
2026-05-05 08:38 38.13149 -122.00951 18737 ft 346 kts 49°
2026-05-05 08:38 38.14740 -121.98633 19082 ft 348 kts 49°
2026-05-05 08:38 38.15796 -121.97094 19308 ft 350 kts 49°
2026-05-05 08:39 38.17403 -121.94750 19666 ft 352 kts 49°
2026-05-05 08:39 38.19543 -121.91627 20122 ft 356 kts 49°
2026-05-05 08:39 38.21172 -121.89247 20476 ft 358 kts 49°
2026-05-05 08:39 38.22810 -121.86852 20829 ft 360 kts 49°
2026-05-05 08:40 38.24457 -121.84443 21165 ft 362 kts 49°
2026-05-05 08:40 38.25577 -121.82804 21410 ft 364 kts 49°
2026-05-05 08:40 38.27216 -121.80402 21749 ft 366 kts 49°
2026-05-05 08:40 38.28889 -121.77950 22112 ft 368 kts 49°
2026-05-05 08:41 38.30570 -121.75485 22423 ft 370 kts 49°
2026-05-05 08:41 38.32258 -121.73005 22764 ft 372 kts 49°
2026-05-05 08:41 38.33960 -121.70506 23105 ft 374 kts 49°
2026-05-05 08:41 38.35668 -121.67993 23449 ft 376 kts 49°
2026-05-05 08:42 38.37387 -121.65464 23749 ft 378 kts 49°
2026-05-05 08:42 38.39110 -121.62927 24077 ft 379 kts 49°
2026-05-05 08:42 38.40835 -121.60384 24372 ft 380 kts 49°
2026-05-05 08:42 38.42546 -121.57860 24677 ft 382 kts 49°
2026-05-05 08:43 38.44285 -121.55289 24966 ft 383 kts 50°
2026-05-05 08:43 38.45931 -121.52606 25271 ft 385 kts 52°
2026-05-05 08:43 38.47573 -121.49904 25576 ft 386 kts 52°
2026-05-05 08:43 38.49233 -121.47197 25898 ft 388 kts 52°
2026-05-05 08:44 38.50898 -121.44483 26223 ft 390 kts 52°
2026-05-05 08:44 38.52573 -121.41749 26555 ft 392 kts 52°
2026-05-05 08:44 38.54232 -121.39036 26891 ft 393 kts 52°
2026-05-05 08:44 38.55937 -121.36242 27254 ft 395 kts 52°
2026-05-05 08:45 38.57631 -121.33463 27580 ft 397 kts 52°
2026-05-05 08:45 38.59308 -121.30707 27949 ft 399 kts 52°
2026-05-05 08:45 38.61016 -121.27899 28300 ft 401 kts 52°
2026-05-05 08:45 38.62729 -121.25079 28664 ft 403 kts 52°
2026-05-05 08:46 38.64449 -121.22247 29008 ft 405 kts 52°
2026-05-05 08:46 38.66182 -121.19389 29369 ft 407 kts 52°
2026-05-05 08:46 38.67920 -121.16522 29735 ft 409 kts 52°
2026-05-05 08:46 38.69669 -121.13633 30099 ft 411 kts 52°
2026-05-05 08:47 38.71420 -121.10738 30425 ft 412 kts 52°
2026-05-05 08:47 38.73172 -121.07840 30848 ft 411 kts 52°
2026-05-05 08:47 38.74921 -121.04943 31242 ft 412 kts 52°
2026-05-05 08:47 38.76651 -121.02075 31605 ft 412 kts 52°
2026-05-05 08:48 38.78400 -120.99174 31999 ft 411 kts 52°
2026-05-05 08:48 38.80151 -120.96267 32329 ft 413 kts 52°
2026-05-05 08:48 38.81904 -120.93353 32704 ft 413 kts 52°
2026-05-05 08:48 38.83658 -120.90436 33033 ft 414 kts 52°
2026-05-05 08:49 38.85437 -120.87474 33048 ft 423 kts 52°
2026-05-05 08:49 38.89076 -120.81406 33041 ft 432 kts 52°
2026-05-05 08:50 38.92708 -120.75339 33041 ft 431 kts 52°
2026-05-05 08:50 38.96358 -120.69230 33030 ft 432 kts 52°
2026-05-05 08:51 39.00008 -120.63111 33021 ft 431 kts 52°
2026-05-05 08:51 39.03653 -120.56988 33001 ft 431 kts 53°
2026-05-05 08:52 39.07282 -120.50878 33002 ft 430 kts 53°
2026-05-05 08:52 39.10883 -120.44804 32990 ft 429 kts 53°
2026-05-05 08:53 39.14501 -120.38690 32977 ft 429 kts 53°
2026-05-05 08:53 39.18118 -120.32567 32985 ft 430 kts 53°
2026-05-05 08:54 39.21739 -120.26424 32997 ft 431 kts 53°
2026-05-05 08:54 39.25363 -120.20265 33016 ft 432 kts 53°
2026-05-05 08:55 39.28973 -120.14118 33029 ft 433 kts 53°
2026-05-05 08:55 39.32606 -120.07920 33029 ft 433 kts 53°
2026-05-05 08:56 39.36241 -120.01706 33019 ft 434 kts 53°
2026-05-05 08:56 39.39873 -119.95486 33000 ft 433 kts 53°
2026-05-05 08:57 39.43503 -119.89256 32966 ft 434 kts 53°
2026-05-05 08:57 39.47109 -119.83054 32975 ft 434 kts 53°
2026-05-05 08:58 39.50742 -119.76797 32977 ft 435 kts 53°
2026-05-05 08:58 39.54368 -119.70538 32971 ft 435 kts 53°
2026-05-05 08:59 39.57973 -119.64303 32955 ft 435 kts 53°
2026-05-05 08:59 39.61623 -119.57980 32923 ft 435 kts 53°
2026-05-05 09:00 39.65224 -119.51725 32893 ft 436 kts 53°
2026-05-05 09:00 39.68850 -119.45416 32867 ft 436 kts 53°
2026-05-05 09:01 39.72482 -119.39085 32836 ft 437 kts 53°
2026-05-05 09:01 39.76088 -119.32786 32837 ft 438 kts 53°
2026-05-05 09:02 39.79724 -119.26421 32833 ft 439 kts 53°
2026-05-05 09:02 39.83358 -119.20048 32830 ft 439 kts 53°
2026-05-05 09:03 39.86990 -119.13669 32824 ft 439 kts 53°
2026-05-05 09:03 39.90510 -119.07168 32826 ft 439 kts 57°
2026-05-05 09:04 39.93837 -119.00554 32829 ft 439 kts 56°
2026-05-05 09:04 39.97207 -118.93909 32843 ft 440 kts 56°
2026-05-05 09:05 40.00323 -118.87025 32864 ft 441 kts 60°
2026-05-05 09:05 40.03307 -118.80034 32875 ft 442 kts 60°
2026-05-05 09:06 40.06299 -118.73029 32898 ft 442 kts 60°
2026-05-05 09:06 40.09291 -118.66000 32908 ft 443 kts 60°
2026-05-05 09:07 40.12258 -118.59008 32913 ft 444 kts 60°
2026-05-05 09:07 40.15250 -118.51940 32917 ft 444 kts 60°
2026-05-05 09:08 40.18237 -118.44867 32897 ft 445 kts 60°
2026-05-05 09:08 40.21205 -118.37824 32890 ft 445 kts 60°
2026-05-05 09:09 40.24190 -118.30721 32858 ft 446 kts 60°
2026-05-05 09:09 40.27175 -118.23607 32837 ft 446 kts 60°
2026-05-05 09:10 40.30162 -118.16472 32832 ft 447 kts 60°
2026-05-05 09:10 40.32624 -118.08991 32841 ft 450 kts 70°
2026-05-05 09:11 40.34299 -118.01089 32834 ft 450 kts 72°
2026-05-05 09:11 40.35984 -117.93234 32834 ft 450 kts 72°
2026-05-05 09:12 40.37668 -117.85316 32816 ft 451 kts 72°
2026-05-05 09:12 40.39340 -117.77398 32815 ft 451 kts 72°
2026-05-05 09:13 40.41008 -117.69460 32813 ft 452 kts 72°
2026-05-05 09:13 40.42664 -117.61553 32819 ft 452 kts 72°
2026-05-05 09:14 40.44325 -117.53584 32814 ft 453 kts 72°
2026-05-05 09:14 40.45984 -117.45597 32814 ft 454 kts 72°
2026-05-05 09:15 40.47643 -117.37588 32811 ft 455 kts 73°
2026-05-05 09:15 40.49298 -117.29559 32815 ft 455 kts 73°
2026-05-05 09:16 40.50938 -117.21577 32838 ft 456 kts 73°
2026-05-05 09:16 40.52584 -117.13532 32858 ft 456 kts 73°
2026-05-05 09:17 40.54226 -117.05474 32890 ft 457 kts 73°
2026-05-05 09:17 40.55892 -116.97419 32910 ft 457 kts 70°
2026-05-05 09:18 40.58434 -116.89844 32914 ft 455 kts 59°
2026-05-05 09:18 40.61987 -116.83024 32909 ft 455 kts 54°
2026-05-05 09:19 40.65689 -116.76242 32904 ft 456 kts 54°
2026-05-05 09:19 40.69394 -116.69448 32882 ft 457 kts 54°
2026-05-05 09:20 40.73112 -116.62641 32858 ft 458 kts 54°
2026-05-05 09:20 40.76832 -116.55820 32842 ft 459 kts 54°
2026-05-05 09:21 40.80529 -116.49019 32804 ft 459 kts 54°
2026-05-05 09:21 40.84252 -116.42152 32805 ft 460 kts 54°
2026-05-05 09:22 40.87973 -116.35274 32813 ft 460 kts 54°
2026-05-05 09:22 40.91694 -116.28379 32822 ft 461 kts 54°
2026-05-05 09:23 40.95391 -116.21513 32823 ft 461 kts 54°
2026-05-05 09:23 40.99112 -116.14588 32836 ft 462 kts 54°
2026-05-05 09:24 41.02832 -116.07650 32827 ft 462 kts 54°
2026-05-05 09:24 41.06553 -116.00692 32833 ft 463 kts 54°
2026-05-05 09:25 41.10244 -115.93775 32819 ft 463 kts 54°
2026-05-05 09:25 41.13963 -115.86792 32798 ft 464 kts 54°
2026-05-05 09:26 41.17683 -115.79790 32780 ft 465 kts 54°
2026-05-05 09:26 41.21407 -115.72765 32774 ft 466 kts 54°
2026-05-05 09:27 41.25133 -115.65721 32759 ft 467 kts 54°
2026-05-05 09:27 41.28835 -115.58702 32760 ft 467 kts 54°
2026-05-05 09:28 41.32570 -115.51607 32757 ft 468 kts 54°
2026-05-05 09:28 41.36295 -115.44517 32744 ft 469 kts 54°
2026-05-05 09:29 41.40031 -115.37386 32751 ft 470 kts 54°
2026-05-05 09:29 41.43768 -115.30238 32753 ft 471 kts 54°
2026-05-05 09:30 41.47508 -115.23068 32750 ft 471 kts 54°
2026-05-05 09:30 41.51225 -115.15924 32746 ft 472 kts 54°
2026-05-05 09:31 41.54965 -115.08723 32740 ft 472 kts 54°
2026-05-05 09:31 41.58705 -115.01502 32735 ft 473 kts 54°
2026-05-05 09:32 41.62440 -114.94272 32726 ft 473 kts 54°
2026-05-05 09:32 41.66153 -114.87066 32721 ft 474 kts 54°
2026-05-05 09:33 41.69886 -114.79807 32715 ft 474 kts 54°
2026-05-05 09:33 41.73624 -114.72521 32712 ft 475 kts 54°
2026-05-05 09:34 41.77358 -114.65224 32709 ft 476 kts 54°
2026-05-05 09:34 41.81098 -114.57899 32706 ft 476 kts 54°
2026-05-05 09:35 41.84809 -114.50612 32700 ft 477 kts 54°
2026-05-05 09:35 41.90416 -114.39571 32702 ft 478 kts 54°
2026-05-05 09:36 41.94153 -114.32191 32697 ft 478 kts 54°
2026-05-05 09:36 41.97866 -114.24838 32701 ft 479 kts 54°
2026-05-05 09:37 42.01607 -114.17412 32709 ft 480 kts 54°
2026-05-05 09:37 42.05344 -114.09977 32721 ft 480 kts 54°
2026-05-05 09:38 42.09084 -114.02517 32724 ft 481 kts 54°
2026-05-05 09:38 42.12819 -113.95047 32733 ft 481 kts 54°
2026-05-05 09:39 42.16530 -113.87607 32738 ft 482 kts 54°
2026-05-05 09:39 42.20267 -113.80096 32736 ft 482 kts 54°
2026-05-05 09:40 42.23998 -113.72579 32752 ft 482 kts 54°
2026-05-05 09:40 42.27727 -113.65047 32768 ft 482 kts 54°
2026-05-05 09:41 42.31446 -113.57519 32774 ft 482 kts 54°
2026-05-05 09:41 42.35136 -113.50028 32774 ft 482 kts 54°
2026-05-05 09:42 42.38850 -113.42470 32778 ft 483 kts 54°
2026-05-05 09:42 42.42566 -113.34891 32755 ft 483 kts 54°
2026-05-05 09:43 42.46276 -113.27302 32745 ft 484 kts 54°
2026-05-05 09:43 42.49964 -113.19740 32751 ft 484 kts 54°
2026-05-05 09:44 42.53676 -113.12109 32752 ft 485 kts 54°
2026-05-05 09:44 42.57385 -113.04466 32757 ft 486 kts 54°
2026-05-05 09:45 42.61099 -112.96792 32761 ft 487 kts 54°
2026-05-05 09:45 42.64811 -112.89102 32768 ft 487 kts 54°
2026-05-05 09:46 42.68497 -112.81446 32804 ft 488 kts 54°
2026-05-05 09:46 42.72207 -112.73722 32837 ft 488 kts 54°
2026-05-05 09:47 42.75921 -112.65968 32862 ft 489 kts 54°
2026-05-05 09:47 42.79633 -112.58199 32877 ft 490 kts 54°
2026-05-05 09:48 42.83343 -112.50414 32885 ft 491 kts 54°
2026-05-05 09:48 42.87034 -112.42647 32871 ft 492 kts 54°
2026-05-05 09:49 42.90750 -112.34807 32848 ft 493 kts 54°
2026-05-05 09:49 42.94469 -112.26942 32825 ft 494 kts 54°
2026-05-05 09:50 42.98193 -112.19043 32814 ft 495 kts 54°
2026-05-05 09:50 43.01924 -112.11110 32807 ft 496 kts 54°
2026-05-05 09:51 43.05626 -112.03216 32813 ft 497 kts 54°
2026-05-05 09:51 43.09350 -111.95252 32820 ft 498 kts 54°
2026-05-05 09:52 43.11220 -111.91246 32996 ft 500 kts 54°
2026-05-05 09:52 43.13086 -111.87245 33511 ft 498 kts 54°
2026-05-05 09:52 43.14944 -111.83252 33985 ft 496 kts 54°
2026-05-05 09:52 43.16800 -111.79261 34342 ft 497 kts 54°
2026-05-05 09:53 43.18652 -111.75271 34673 ft 497 kts 54°
2026-05-05 09:53 43.20490 -111.71308 34817 ft 500 kts 54°
2026-05-05 09:53 43.24180 -111.63329 34821 ft 495 kts 54°
2026-05-05 09:54 43.27868 -111.55337 34825 ft 496 kts 54°
2026-05-05 09:54 43.31557 -111.47322 34831 ft 498 kts 54°
2026-05-05 09:55 43.35252 -111.39271 34821 ft 498 kts 54°
2026-05-05 09:55 43.38919 -111.31258 34818 ft 499 kts 54°
2026-05-05 09:56 43.42606 -111.23180 34824 ft 499 kts 54°
2026-05-05 09:56 43.46298 -111.15070 34838 ft 500 kts 54°
2026-05-05 09:57 43.49987 -111.06941 34878 ft 501 kts 54°
2026-05-05 09:57 43.53679 -110.98784 34914 ft 502 kts 54°
2026-05-05 09:58 43.57348 -110.90654 34950 ft 504 kts 54°
2026-05-05 09:58 43.61044 -110.82444 34965 ft 504 kts 54°
2026-05-05 09:59 43.64733 -110.74224 34966 ft 504 kts 54°
2026-05-05 09:59 43.68427 -110.65971 34964 ft 505 kts 54°
2026-05-05 10:00 43.72092 -110.57767 34937 ft 506 kts 54°
2026-05-05 10:00 43.75786 -110.49482 34915 ft 507 kts 54°
2026-05-05 10:01 43.79485 -110.41164 34894 ft 508 kts 54°
2026-05-05 10:01 43.83170 -110.32808 34890 ft 510 kts 56°
2026-05-05 10:02 43.86872 -110.24447 34903 ft 509 kts 53°
2026-05-05 10:02 43.90671 -110.16246 34902 ft 510 kts 53°
2026-05-05 10:03 43.94471 -110.07937 34914 ft 510 kts 53°
2026-05-05 10:03 43.98251 -109.99605 34928 ft 511 kts 53°
2026-05-05 10:04 44.02033 -109.91235 34948 ft 512 kts 54°
2026-05-05 10:04 44.05787 -109.82891 34964 ft 513 kts 54°
2026-05-05 10:05 44.09567 -109.74464 34981 ft 514 kts 54°
2026-05-05 10:05 44.13347 -109.66018 34993 ft 515 kts 54°
2026-05-05 10:06 44.17122 -109.57549 35019 ft 515 kts 54°
2026-05-05 10:06 44.20838 -109.49188 35046 ft 517 kts 54°
2026-05-05 10:07 44.24617 -109.40660 35065 ft 517 kts 54°
2026-05-05 10:07 44.28398 -109.32105 35085 ft 518 kts 54°
2026-05-05 10:08 44.32174 -109.23535 35097 ft 518 kts 54°
2026-05-05 10:08 44.35943 -109.14954 35094 ft 518 kts 54°
2026-05-05 10:09 44.39679 -109.06426 35096 ft 518 kts 54°
2026-05-05 10:09 44.43437 -108.97822 35084 ft 518 kts 54°
2026-05-05 10:10 44.47188 -108.89204 35086 ft 519 kts 54°
2026-05-05 10:10 44.50938 -108.80565 35076 ft 519 kts 54°
2026-05-05 10:11 44.54686 -108.71906 35067 ft 520 kts 54°
2026-05-05 10:11 44.58433 -108.63222 35054 ft 521 kts 54°
2026-05-05 10:12 44.62153 -108.54574 35042 ft 522 kts 54°
2026-05-05 10:12 44.65903 -108.45829 35043 ft 523 kts 54°
2026-05-05 10:13 44.69655 -108.37050 35032 ft 525 kts 54°
2026-05-05 10:13 44.73387 -108.28295 35035 ft 526 kts 54°
2026-05-05 10:14 44.77142 -108.19455 35036 ft 527 kts 54°
2026-05-05 10:14 44.80899 -108.10586 35041 ft 528 kts 54°
2026-05-05 10:15 44.84661 -108.01674 35045 ft 530 kts 54°
2026-05-05 10:15 44.88400 -107.92791 35065 ft 531 kts 54°
2026-05-05 10:16 44.92167 -107.83814 35082 ft 532 kts 54°
2026-05-05 10:16 44.95926 -107.74826 35094 ft 532 kts 54°
2026-05-05 10:17 44.99684 -107.65810 35100 ft 533 kts 54°
2026-05-05 10:17 45.03436 -107.56781 35100 ft 533 kts 54°
2026-05-05 10:18 45.07160 -107.47794 35110 ft 533 kts 54°
2026-05-05 10:18 45.10899 -107.38739 35115 ft 533 kts 54°
2026-05-05 10:19 45.14636 -107.29657 35119 ft 534 kts 54°
2026-05-05 10:19 45.18368 -107.20562 35131 ft 534 kts 54°
2026-05-05 10:20 45.22069 -107.11510 35120 ft 534 kts 54°
2026-05-05 10:20 45.25793 -107.02374 35128 ft 534 kts 54°
2026-05-05 10:21 45.29507 -106.93232 35128 ft 535 kts 54°
2026-05-05 10:21 45.33211 -106.84085 35128 ft 534 kts 54°
2026-05-05 10:22 45.36884 -106.74983 35128 ft 534 kts 54°
2026-05-05 10:22 45.40568 -106.65826 35129 ft 534 kts 55°
2026-05-05 10:23 45.44250 -106.56645 35114 ft 533 kts 55°
2026-05-05 10:23 45.47918 -106.47465 35116 ft 533 kts 55°
2026-05-05 10:24 45.51571 -106.38293 35120 ft 532 kts 55°
2026-05-05 10:24 45.55191 -106.29175 35121 ft 532 kts 55°
2026-05-05 10:25 45.58832 -106.19976 35121 ft 532 kts 55°
2026-05-05 10:25 45.62461 -106.10775 35124 ft 532 kts 56°
2026-05-05 10:26 45.66086 -106.01550 35122 ft 532 kts 56°
2026-05-05 10:26 45.69703 -105.92320 35121 ft 532 kts 56°
2026-05-05 10:27 45.73288 -105.83137 35119 ft 532 kts 56°
2026-05-05 10:27 45.76890 -105.73881 35119 ft 532 kts 56°
2026-05-05 10:28 45.80485 -105.64612 35123 ft 532 kts 56°
2026-05-05 10:28 45.84067 -105.55343 35115 ft 531 kts 56°
2026-05-05 10:29 45.87636 -105.46078 35111 ft 531 kts 56°
2026-05-05 10:29 45.91172 -105.36868 35107 ft 530 kts 57°
2026-05-05 10:30 45.94724 -105.27587 35098 ft 530 kts 57°
2026-05-05 10:30 45.98264 -105.18304 35099 ft 529 kts 57°
2026-05-05 10:31 46.01792 -105.09019 35092 ft 529 kts 57°
2026-05-05 10:31 46.05311 -104.99728 35089 ft 529 kts 57°
2026-05-05 10:32 46.08804 -104.90475 35082 ft 529 kts 57°
2026-05-05 10:32 46.12310 -104.81155 35079 ft 530 kts 57°
2026-05-05 10:33 46.15812 -104.71813 35093 ft 530 kts 57°
2026-05-05 10:33 46.19308 -104.62455 35083 ft 530 kts 58°
2026-05-05 10:34 46.22800 -104.53077 35067 ft 530 kts 58°
2026-05-05 10:34 46.26259 -104.43751 35049 ft 530 kts 58°
2026-05-05 10:35 46.29735 -104.34352 35035 ft 531 kts 58°
2026-05-05 10:35 46.33209 -104.24923 35040 ft 531 kts 58°
2026-05-05 10:36 46.36668 -104.15500 35039 ft 530 kts 58°
2026-05-05 10:36 46.40097 -104.06129 35050 ft 530 kts 58°
2026-05-05 10:37 46.43539 -103.96687 35068 ft 530 kts 58°
2026-05-05 10:37 46.46969 -103.87246 35080 ft 529 kts 58°
2026-05-05 10:38 46.50393 -103.77789 35083 ft 529 kts 58°
2026-05-05 10:38 46.53784 -103.68388 35066 ft 529 kts 58°
2026-05-05 10:39 46.57186 -103.58924 35064 ft 529 kts 59°
2026-05-05 10:39 46.60580 -103.49449 35065 ft 528 kts 59°
2026-05-05 10:40 46.63963 -103.39973 35059 ft 528 kts 59°
2026-05-05 10:40 46.67322 -103.30527 35056 ft 528 kts 59°
2026-05-05 10:41 46.70689 -103.21026 35037 ft 528 kts 59°
2026-05-05 10:41 46.74047 -103.11519 35015 ft 527 kts 59°
2026-05-05 10:42 46.79073 -102.97250 34988 ft 527 kts 59°
2026-05-05 10:43 46.82389 -102.87805 34978 ft 527 kts 59°
2026-05-05 10:43 46.86210 -102.78801 34976 ft 517 kts 44°
2026-05-05 10:43 46.88808 -102.75211 34978 ft 510 kts 33°
2026-05-05 10:44 46.91742 -102.72367 34990 ft 504 kts 25°
2026-05-05 10:44 46.97789 -102.67160 34998 ft 504 kts 26°
2026-05-05 10:45 47.03813 -102.61919 35012 ft 504 kts 26°
2026-05-05 10:45 47.09837 -102.56664 35021 ft 504 kts 26°
2026-05-05 10:46 47.15861 -102.51397 35029 ft 503 kts 26°
2026-05-05 10:46 47.21828 -102.46166 35023 ft 503 kts 26°
2026-05-05 10:47 47.27833 -102.40889 35017 ft 503 kts 26°
2026-05-05 10:47 47.33837 -102.35598 35016 ft 502 kts 26°
2026-05-05 10:48 47.39831 -102.30302 35017 ft 502 kts 27°
2026-05-05 10:48 47.45820 -102.24996 35010 ft 502 kts 27°
2026-05-05 10:49 47.51762 -102.19718 35021 ft 501 kts 27°
2026-05-05 10:49 47.57729 -102.14402 35002 ft 501 kts 27°
2026-05-05 10:50 47.63692 -102.09077 35006 ft 500 kts 27°
2026-05-05 10:50 47.69611 -102.03776 35008 ft 500 kts 27°
2026-05-05 10:51 47.75559 -101.98435 35008 ft 499 kts 27°
2026-05-05 10:51 47.81503 -101.93083 35007 ft 499 kts 27°
2026-05-05 10:52 47.87436 -101.87727 35006 ft 498 kts 27°
2026-05-05 10:52 47.92354 -101.83276 35002 ft 498 kts 27°
2026-05-05 10:53 47.99229 -101.77037 34998 ft 497 kts 27°
2026-05-05 10:53 48.04167 -101.72544 34992 ft 497 kts 27°
2026-05-05 10:54 48.10027 -101.67198 34985 ft 496 kts 27°
2026-05-05 10:54 48.15924 -101.61804 34973 ft 496 kts 27°
2026-05-05 10:55 48.21821 -101.56396 34968 ft 496 kts 27°
2026-05-05 10:55 48.27704 -101.50985 34963 ft 496 kts 27°
2026-05-05 10:56 48.33584 -101.45563 34941 ft 496 kts 28°
2026-05-05 10:56 48.39395 -101.40189 34940 ft 496 kts 28°
2026-05-05 10:57 48.45267 -101.34744 34939 ft 495 kts 28°
2026-05-05 10:57 48.51105 -101.29315 34934 ft 495 kts 28°
2026-05-05 10:58 48.56961 -101.23855 34953 ft 495 kts 28°
2026-05-05 10:58 48.62772 -101.18422 34980 ft 494 kts 28°
2026-05-05 10:59 48.68617 -101.12943 34991 ft 494 kts 28°
2026-05-05 10:59 48.74440 -101.07469 35002 ft 493 kts 28°
2026-05-05 11:00 48.80282 -101.01962 35007 ft 493 kts 28°
2026-05-05 11:00 48.86096 -100.96464 35006 ft 492 kts 28°
2026-05-05 11:01 48.91868 -100.90993 35003 ft 492 kts 28°
2026-05-05 11:01 48.97675 -100.85478 35004 ft 492 kts 28°
2026-05-05 11:02 49.03469 -100.79956 35005 ft 491 kts 28°
2026-05-05 11:02 49.09255 -100.74418 35000 ft 491 kts 29°
2026-05-05 11:03 49.15032 -100.68879 34999 ft 490 kts 29°
2026-05-05 11:03 49.20763 -100.63368 35001 ft 490 kts 29°
2026-05-05 11:04 49.26526 -100.57812 34998 ft 490 kts 29°
2026-05-05 11:04 49.32288 -100.52241 34998 ft 490 kts 29°
2026-05-05 11:05 49.38041 -100.46663 35001 ft 490 kts 29°
2026-05-05 11:05 49.43799 -100.41065 34998 ft 490 kts 29°
2026-05-05 11:06 49.49549 -100.35459 34996 ft 489 kts 29°
2026-05-05 11:06 49.55254 -100.29880 35000 ft 489 kts 29°
2026-05-05 11:07 49.61003 -100.24244 34995 ft 489 kts 29°
2026-05-05 11:07 49.66737 -100.18605 34984 ft 489 kts 30°
2026-05-05 11:08 49.72471 -100.12951 34967 ft 489 kts 30°
2026-05-05 11:08 49.78164 -100.07322 34949 ft 489 kts 30°
2026-05-05 11:09 49.83874 -100.01659 34936 ft 488 kts 30°
2026-05-05 11:09 49.89578 -99.95986 34936 ft 488 kts 30°
2026-05-05 11:10 49.94988 -99.89563 34927 ft 490 kts 36°
2026-05-05 11:10 50.00314 -99.82941 34937 ft 490 kts 36°
2026-05-05 11:11 50.05606 -99.76364 34958 ft 490 kts 36°
2026-05-05 11:11 50.10918 -99.69721 34976 ft 490 kts 36°
2026-05-05 11:12 50.16232 -99.63048 34989 ft 490 kts 36°
2026-05-05 11:12 50.21534 -99.56368 35002 ft 490 kts 36°
2026-05-05 11:13 50.26795 -99.49720 34994 ft 490 kts 36°
2026-05-05 11:13 50.32092 -99.43007 34992 ft 490 kts 36°
2026-05-05 11:14 50.37380 -99.36285 34990 ft 490 kts 36°
2026-05-05 11:14 50.42671 -99.29540 34994 ft 490 kts 37°
2026-05-05 11:15 50.47955 -99.22785 34986 ft 490 kts 37°
2026-05-05 11:15 50.53231 -99.16019 34985 ft 490 kts 37°
2026-05-05 11:16 50.58458 -99.09295 34989 ft 490 kts 37°
2026-05-05 11:16 50.63707 -99.02524 34985 ft 489 kts 37°
2026-05-05 11:17 50.68968 -98.95716 34979 ft 489 kts 37°
2026-05-05 11:17 50.74227 -98.88892 34975 ft 489 kts 37°
2026-05-05 11:18 50.79437 -98.82109 34973 ft 489 kts 37°
2026-05-05 11:18 50.84680 -98.75264 34972 ft 489 kts 37°
2026-05-05 11:19 50.89914 -98.68410 34967 ft 489 kts 37°
2026-05-05 11:19 50.95154 -98.61527 34966 ft 489 kts 37°
2026-05-05 11:20 51.00348 -98.54685 34966 ft 489 kts 37°
2026-05-05 11:20 51.05572 -98.47781 34967 ft 489 kts 37°
2026-05-05 11:21 51.10797 -98.40855 34972 ft 489 kts 38°
2026-05-05 11:21 51.16008 -98.33927 34974 ft 488 kts 38°
2026-05-05 11:22 51.21188 -98.27021 34979 ft 488 kts 38°
2026-05-05 11:22 51.26389 -98.20063 34980 ft 488 kts 38°
2026-05-05 11:23 51.31593 -98.13081 34976 ft 488 kts 38°
2026-05-05 11:23 51.36782 -98.06098 34975 ft 487 kts 38°
2026-05-05 11:24 51.41961 -97.99106 34966 ft 487 kts 38°
2026-05-05 11:24 51.47104 -97.92142 34983 ft 487 kts 38°
2026-05-05 11:25 51.52275 -97.85119 34966 ft 486 kts 38°
2026-05-05 11:25 51.57436 -97.78086 34965 ft 486 kts 38°
2026-05-05 11:26 51.62593 -97.71039 34964 ft 487 kts 38°
2026-05-05 11:26 51.67709 -97.64026 34966 ft 486 kts 38°
2026-05-05 11:27 51.72861 -97.56941 34965 ft 487 kts 38°
2026-05-05 11:27 51.78004 -97.49847 34968 ft 487 kts 39°
2026-05-05 11:28 51.83142 -97.42737 34965 ft 487 kts 39°
2026-05-05 11:28 51.88289 -97.35593 34967 ft 486 kts 39°
2026-05-05 11:29 51.93384 -97.28499 34968 ft 486 kts 39°
2026-05-05 11:29 51.98503 -97.21348 34965 ft 486 kts 39°
2026-05-05 11:30 52.03618 -97.14183 34960 ft 485 kts 39°
2026-05-05 11:30 52.08726 -97.07003 34946 ft 485 kts 39°
2026-05-05 11:31 52.13794 -96.99858 34933 ft 485 kts 39°
2026-05-05 11:31 52.18885 -96.92657 34922 ft 485 kts 39°
2026-05-05 11:32 52.23976 -96.85434 34918 ft 485 kts 39°
2026-05-05 11:32 52.29067 -96.78195 34920 ft 485 kts 39°
2026-05-05 11:33 52.34137 -96.70904 34922 ft 486 kts 42°
2026-05-05 11:33 52.38911 -96.63144 34924 ft 487 kts 43°
2026-05-05 11:34 52.43762 -96.55400 34928 ft 487 kts 43°
2026-05-05 11:34 52.48605 -96.47630 34927 ft 487 kts 43°
2026-05-05 11:35 52.53446 -96.39819 34922 ft 487 kts 43°
2026-05-05 11:35 52.58268 -96.32004 34916 ft 487 kts 43°
2026-05-05 11:36 52.63052 -96.24216 34910 ft 487 kts 43°
2026-05-05 11:36 52.67845 -96.16385 34910 ft 486 kts 43°
2026-05-05 11:37 52.72652 -96.08503 34902 ft 486 kts 44°
2026-05-05 11:37 52.77444 -96.00622 34903 ft 486 kts 44°
2026-05-05 11:38 52.82196 -95.92782 34902 ft 486 kts 44°
2026-05-05 11:38 52.86980 -95.84862 34898 ft 486 kts 44°
2026-05-05 11:39 52.91756 -95.76930 34894 ft 486 kts 44°
2026-05-05 11:39 52.96528 -95.68977 34898 ft 486 kts 44°
2026-05-05 11:40 53.01295 -95.61007 34894 ft 487 kts 44°
2026-05-05 11:40 53.06026 -95.53070 34892 ft 487 kts 44°
2026-05-05 11:41 53.10783 -95.45063 34884 ft 487 kts 44°
2026-05-05 11:41 53.15542 -95.37026 34878 ft 486 kts 44°
2026-05-05 11:42 53.20285 -95.28989 34870 ft 486 kts 44°
2026-05-05 11:42 53.24993 -95.20986 34867 ft 486 kts 44°
2026-05-05 11:43 53.29720 -95.12922 34860 ft 486 kts 44°
2026-05-05 11:43 53.34445 -95.04834 34857 ft 486 kts 45°
2026-05-05 11:44 53.39159 -94.96739 34852 ft 486 kts 45°
2026-05-05 11:44 53.43872 -94.88617 34849 ft 486 kts 45°
2026-05-05 11:45 53.48577 -94.80481 34846 ft 486 kts 45°
2026-05-05 11:45 53.53247 -94.72380 34835 ft 486 kts 45°
2026-05-05 11:46 53.57942 -94.64207 34824 ft 486 kts 45°
2026-05-05 11:46 53.62631 -94.56016 34816 ft 486 kts 45°
2026-05-05 11:47 53.67313 -94.47809 34816 ft 486 kts 45°
2026-05-05 11:47 53.71960 -94.39638 34810 ft 486 kts 45°
2026-05-05 11:48 53.78966 -94.27262 34814 ft 485 kts 45°
2026-05-05 11:48 53.83626 -94.18995 34812 ft 485 kts 45°
2026-05-05 11:49 53.88272 -94.10725 34815 ft 485 kts 46°
2026-05-05 11:49 53.92919 -94.02425 34811 ft 485 kts 46°
2026-05-05 11:50 53.97519 -93.94181 34811 ft 484 kts 46°
2026-05-05 11:50 54.02149 -93.85854 34802 ft 484 kts 46°
2026-05-05 11:51 54.06764 -93.77523 34803 ft 484 kts 46°
2026-05-05 11:51 54.11376 -93.69172 34795 ft 484 kts 46°
2026-05-05 11:52 54.15952 -93.60856 34798 ft 484 kts 46°
2026-05-05 11:52 54.20549 -93.52474 34796 ft 483 kts 46°
2026-05-05 11:53 54.25139 -93.44074 34788 ft 484 kts 46°
2026-05-05 11:53 54.29728 -93.35645 34791 ft 484 kts 46°
2026-05-05 11:54 54.34308 -93.27205 34791 ft 484 kts 46°
2026-05-05 11:54 54.38865 -93.18778 34783 ft 485 kts 47°
2026-05-05 11:55 54.43439 -93.10288 34782 ft 485 kts 47°
2026-05-05 11:55 54.48010 -93.01775 34778 ft 485 kts 47°
2026-05-05 11:56 54.52577 -92.93238 34772 ft 484 kts 47°
2026-05-05 11:56 54.57097 -92.84760 34761 ft 484 kts 47°
2026-05-05 11:57 54.61640 -92.76208 34755 ft 483 kts 47°
2026-05-05 11:57 54.66177 -92.67637 34746 ft 483 kts 47°
2026-05-05 11:58 54.70643 -92.59170 34747 ft 482 kts 47°
2026-05-05 11:58 54.75160 -92.50576 34734 ft 482 kts 47°
2026-05-05 11:59 54.79641 -92.42021 34734 ft 482 kts 47°
2026-05-05 11:59 54.84141 -92.33398 34730 ft 483 kts 47°
2026-05-05 12:00 54.88643 -92.24741 34727 ft 483 kts 48°
2026-05-05 12:00 54.93136 -92.16068 34726 ft 483 kts 48°
2026-05-05 12:01 54.97631 -92.07361 34723 ft 484 kts 48°
2026-05-05 12:01 55.02037 -91.98796 34726 ft 484 kts 48°
2026-05-05 12:02 55.06531 -91.90029 34721 ft 484 kts 48°
2026-05-05 12:02 55.11011 -91.81255 34726 ft 484 kts 48°
2026-05-05 12:03 55.15490 -91.72453 34724 ft 484 kts 49°
2026-05-05 12:03 55.19953 -91.63649 34718 ft 484 kts 49°
2026-05-05 12:04 55.24382 -91.54882 34715 ft 483 kts 49°
2026-05-05 12:04 55.28778 -91.46147 34711 ft 483 kts 49°
2026-05-05 12:05 55.33219 -91.37290 34697 ft 483 kts 49°
2026-05-05 12:05 55.37642 -91.28437 34692 ft 482 kts 49°
2026-05-05 12:06 55.42063 -91.19557 34687 ft 482 kts 49°
2026-05-05 12:06 55.46443 -91.10725 34681 ft 482 kts 49°
2026-05-05 12:07 55.50850 -91.01804 34676 ft 482 kts 50°
2026-05-05 12:07 55.55252 -90.92864 34677 ft 483 kts 50°
2026-05-05 12:08 55.59636 -90.83924 34673 ft 483 kts 50°
2026-05-05 12:08 55.64004 -90.74984 34672 ft 483 kts 50°
2026-05-05 12:09 55.68396 -90.65964 34672 ft 484 kts 50°
2026-05-05 12:09 55.72785 -90.56914 34674 ft 484 kts 50°
2026-05-05 12:10 55.77162 -90.47856 34665 ft 484 kts 50°
2026-05-05 12:10 55.81508 -90.38826 34663 ft 484 kts 50°
2026-05-05 12:11 55.85866 -90.29740 34654 ft 484 kts 50°
2026-05-05 12:11 55.90231 -90.20620 34651 ft 484 kts 50°
2026-05-05 12:12 55.94588 -90.11489 34650 ft 484 kts 50°
2026-05-05 12:12 55.98945 -90.02323 34649 ft 484 kts 51°
2026-05-05 12:13 56.03514 -89.93638 34641 ft 484 kts 43°
2026-05-05 12:13 56.08614 -89.85763 34641 ft 485 kts 42°
2026-05-05 12:14 56.13673 -89.77750 34636 ft 485 kts 43°
2026-05-05 12:14 56.18673 -89.69629 34635 ft 485 kts 44°
2026-05-05 12:15 56.23625 -89.61524 34627 ft 485 kts 44°
2026-05-05 12:15 56.28612 -89.53335 34630 ft 485 kts 44°
2026-05-05 12:16 56.33587 -89.45128 34630 ft 485 kts 44°
2026-05-05 12:16 56.38557 -89.36890 34624 ft 485 kts 44°
2026-05-05 12:17 56.43526 -89.28622 34625 ft 485 kts 44°
2026-05-05 12:17 56.48450 -89.20399 34616 ft 486 kts 44°
2026-05-05 12:18 56.53410 -89.12085 34619 ft 486 kts 44°
2026-05-05 12:18 56.58359 -89.03758 34614 ft 486 kts 44°
2026-05-05 12:19 56.63315 -88.95387 34609 ft 486 kts 44°
2026-05-05 12:19 56.68229 -88.87058 34606 ft 486 kts 44°
2026-05-05 12:20 56.73172 -88.78646 34605 ft 486 kts 45°
2026-05-05 12:20 56.78107 -88.70218 34599 ft 486 kts 45°
2026-05-05 12:21 56.83040 -88.61761 34594 ft 486 kts 45°
2026-05-05 12:21 56.87931 -88.53342 34588 ft 486 kts 45°
2026-05-05 12:22 56.92853 -88.44839 34593 ft 487 kts 45°
2026-05-05 12:22 56.97774 -88.36304 34588 ft 488 kts 45°
2026-05-05 12:23 57.02699 -88.27731 34594 ft 488 kts 45°
2026-05-05 12:23 57.07621 -88.19129 34586 ft 488 kts 45°
2026-05-05 12:24 57.12506 -88.10560 34587 ft 489 kts 45°
2026-05-05 12:24 57.17417 -88.01910 34587 ft 489 kts 46°
2026-05-05 12:25 57.22327 -87.93230 34589 ft 489 kts 46°
2026-05-05 12:25 57.27240 -87.84514 34588 ft 489 kts 46°
2026-05-05 12:26 57.32098 -87.75858 34584 ft 489 kts 46°
2026-05-05 12:26 57.37032 -87.67032 34585 ft 489 kts 46°
2026-05-05 12:27 57.41890 -87.58308 34583 ft 489 kts 46°
2026-05-05 12:27 57.46777 -87.49496 34578 ft 490 kts 46°
2026-05-05 12:28 57.51660 -87.40660 34581 ft 490 kts 46°
2026-05-05 12:28 57.56539 -87.31792 34579 ft 490 kts 47°
2026-05-05 12:29 57.61384 -87.22955 34589 ft 491 kts 47°
2026-05-05 12:29 57.66258 -87.14030 34591 ft 491 kts 47°
2026-05-05 12:30 57.71130 -87.05075 34591 ft 491 kts 47°
2026-05-05 12:30 57.75991 -86.96101 34595 ft 491 kts 47°
2026-05-05 12:31 57.80821 -86.87150 34596 ft 491 kts 47°
2026-05-05 12:31 57.85677 -86.78114 34595 ft 492 kts 47°
2026-05-05 12:32 57.90528 -86.69048 34618 ft 492 kts 47°
2026-05-05 12:32 57.95377 -86.59954 34614 ft 492 kts 47°
2026-05-05 12:33 58.00221 -86.50833 34610 ft 492 kts 47°
2026-05-05 12:33 58.04935 -86.41919 34621 ft 492 kts 47°
2026-05-05 12:34 58.09736 -86.32802 34616 ft 493 kts 47°
2026-05-05 12:34 58.14571 -86.23584 34615 ft 493 kts 47°
2026-05-05 12:35 58.19389 -86.14362 34611 ft 493 kts 48°
2026-05-05 12:35 58.24206 -86.05105 34623 ft 493 kts 48°
2026-05-05 12:36 58.29018 -85.95818 34624 ft 493 kts 48°
2026-05-05 12:36 58.33787 -85.86575 34627 ft 493 kts 48°
2026-05-05 12:37 58.38584 -85.77242 34632 ft 493 kts 48°
2026-05-05 12:37 58.43370 -85.67892 34632 ft 493 kts 48°
2026-05-05 12:38 58.48148 -85.58517 34638 ft 492 kts 48°
2026-05-05 12:38 58.52918 -85.49117 34635 ft 492 kts 48°
2026-05-05 12:39 58.57652 -85.39752 34634 ft 492 kts 48°
2026-05-05 12:39 58.62409 -85.30303 34644 ft 492 kts 49°
2026-05-05 12:40 58.67157 -85.20831 34648 ft 493 kts 49°
2026-05-05 12:40 58.71827 -85.11476 34650 ft 493 kts 49°
2026-05-05 12:41 58.76537 -85.01999 34651 ft 493 kts 49°
2026-05-05 12:41 58.81282 -84.92416 34652 ft 494 kts 49°
2026-05-05 12:42 58.86018 -84.82807 34655 ft 494 kts 49°
2026-05-05 12:42 58.90753 -84.73160 34659 ft 495 kts 49°
2026-05-05 12:43 58.95453 -84.63544 34663 ft 496 kts 49°
2026-05-05 12:43 59.00189 -84.53813 34671 ft 496 kts 49°
2026-05-05 12:44 59.04923 -84.44045 34673 ft 496 kts 49°
2026-05-05 12:44 59.09649 -84.34250 34675 ft 497 kts 49°
2026-05-05 12:45 59.14368 -84.24426 34677 ft 497 kts 49°
2026-05-05 12:45 59.19058 -84.14623 34681 ft 497 kts 49°
2026-05-05 12:46 59.23767 -84.04736 34686 ft 498 kts 49°
2026-05-05 12:46 59.28456 -83.94849 34682 ft 498 kts 49°
2026-05-05 12:47 59.33150 -83.84907 34682 ft 498 kts 49°
2026-05-05 12:47 59.37807 -83.75002 34700 ft 497 kts 50°
2026-05-05 12:48 59.42485 -83.65006 34703 ft 497 kts 50°
2026-05-05 12:48 59.47157 -83.54981 34700 ft 497 kts 50°
2026-05-05 12:49 59.51816 -83.44939 34704 ft 497 kts 50°
2026-05-05 12:49 59.56466 -83.34872 34701 ft 497 kts 50°
2026-05-05 12:50 59.61079 -83.24840 34704 ft 497 kts 50°
2026-05-05 12:50 59.65711 -83.14721 34715 ft 497 kts 50°
2026-05-05 12:51 59.70339 -83.04568 34713 ft 497 kts 50°
2026-05-05 12:51 59.74965 -82.94374 34716 ft 497 kts 50°
2026-05-05 12:52 59.79581 -82.84156 34722 ft 497 kts 50°
2026-05-05 12:52 59.84161 -82.73973 34724 ft 498 kts 50°
2026-05-05 12:53 59.88768 -82.63682 34730 ft 498 kts 50°
2026-05-05 12:53 59.93367 -82.53364 34734 ft 498 kts 51°
2026-05-05 12:54 60.00252 -82.37829 34736 ft 498 kts 51°
2026-05-05 12:55 60.04834 -82.27431 34741 ft 498 kts 51°
2026-05-05 12:55 60.09379 -82.17070 34745 ft 498 kts 51°
2026-05-05 12:56 60.13946 -82.06612 34748 ft 499 kts 51°
2026-05-05 12:56 60.18505 -81.96122 34754 ft 499 kts 51°
2026-05-05 12:57 60.23060 -81.85597 34755 ft 499 kts 51°
2026-05-05 12:57 60.27573 -81.75116 34758 ft 499 kts 51°
2026-05-05 12:58 60.32107 -81.64541 34759 ft 499 kts 52°
2026-05-05 12:58 60.36640 -81.53920 34766 ft 499 kts 52°
2026-05-05 12:59 60.41153 -81.43293 34770 ft 499 kts 52°
2026-05-05 12:59 60.45668 -81.32614 34771 ft 499 kts 52°
2026-05-05 13:00 60.52385 -81.16634 34780 ft 498 kts 52°
2026-05-05 13:01 60.61343 -80.95147 34790 ft 498 kts 53°
2026-05-05 13:01 60.65805 -80.84367 34791 ft 498 kts 53°
2026-05-05 13:02 60.70231 -80.73626 34791 ft 498 kts 53°
2026-05-05 13:02 60.74677 -80.62784 34792 ft 498 kts 53°
2026-05-05 13:03 60.79112 -80.51918 34794 ft 498 kts 53°
2026-05-05 13:03 60.83547 -80.41021 34803 ft 498 kts 53°
2026-05-05 13:04 60.87232 -80.31936 34817 ft 498 kts 53°
2026-05-05 13:04 60.92382 -80.19186 34798 ft 499 kts 54°
2026-05-05 13:05 60.96805 -80.08177 34816 ft 499 kts 54°
2026-05-05 13:05 61.01235 -79.97161 34813 ft 501 kts 51°
2026-05-05 13:06 61.05350 -79.88687 34814 ft 504 kts 47°
2026-05-05 13:06 61.10441 -79.78748 34817 ft 504 kts 47°
2026-05-05 13:07 61.16292 -79.66998 34821 ft 504 kts 48°
2026-05-05 13:07 61.21291 -79.56813 34818 ft 504 kts 48°
2026-05-05 13:08 61.25444 -79.48307 34827 ft 505 kts 48°
2026-05-05 13:08 61.30436 -79.38026 34829 ft 505 kts 49°
2026-05-05 13:09 61.35418 -79.27706 34827 ft 505 kts 49°
2026-05-05 13:09 61.40391 -79.17355 34829 ft 506 kts 49°
2026-05-05 13:10 61.45334 -79.07017 34831 ft 506 kts 49°
2026-05-05 13:10 61.50298 -78.96587 34833 ft 506 kts 49°
2026-05-05 13:11 61.55256 -78.86120 34840 ft 506 kts 49°
2026-05-05 13:11 61.60207 -78.75615 34839 ft 506 kts 49°
2026-05-05 13:12 61.65122 -78.65137 34837 ft 506 kts 49°
2026-05-05 13:12 61.70060 -78.54560 34838 ft 507 kts 50°
2026-05-05 13:13 61.74999 -78.43927 34838 ft 507 kts 50°
2026-05-05 13:13 61.79925 -78.33273 34841 ft 508 kts 50°
2026-05-05 13:14 61.84856 -78.22553 34845 ft 508 kts 50°
2026-05-05 13:14 61.89745 -78.11874 34845 ft 508 kts 50°
2026-05-05 13:15 61.94660 -78.01085 34859 ft 509 kts 50°
2026-05-05 13:15 61.99576 -77.90242 34853 ft 509 kts 51°
2026-05-05 13:16 62.04470 -77.79390 34845 ft 510 kts 51°
2026-05-05 13:16 62.09349 -77.68520 34841 ft 510 kts 51°
2026-05-05 13:17 62.14247 -77.57553 34852 ft 510 kts 51°
2026-05-05 13:17 62.19136 -77.46551 34854 ft 510 kts 51°
2026-05-05 13:18 62.24024 -77.35496 34854 ft 511 kts 52°
2026-05-05 13:18 62.28869 -77.24483 34860 ft 511 kts 52°
2026-05-05 13:19 62.33738 -77.13359 34866 ft 511 kts 52°
2026-05-05 13:19 62.38608 -77.02175 34871 ft 512 kts 52°
2026-05-05 13:20 62.43472 -76.90949 34883 ft 512 kts 52°
2026-05-05 13:20 62.48331 -76.79678 34881 ft 512 kts 53°
2026-05-05 13:21 62.53140 -76.68463 34886 ft 512 kts 53°
2026-05-05 13:21 62.57978 -76.57127 34893 ft 512 kts 53°
2026-05-05 13:22 62.62806 -76.45753 34893 ft 512 kts 53°
2026-05-05 13:22 62.67618 -76.34359 34897 ft 512 kts 53°
2026-05-05 13:23 62.72432 -76.22900 34895 ft 512 kts 53°
2026-05-05 13:23 62.77196 -76.11502 34890 ft 512 kts 54°
2026-05-05 13:24 62.81986 -75.99983 34887 ft 512 kts 54°
2026-05-05 13:24 62.86768 -75.88421 34886 ft 512 kts 54°
2026-05-05 13:25 62.91541 -75.76820 34880 ft 512 kts 54°
2026-05-05 13:25 62.96300 -75.65193 34873 ft 512 kts 54°
2026-05-05 13:26 63.01022 -75.53595 34875 ft 512 kts 54°
2026-05-05 13:26 63.05772 -75.41868 34886 ft 513 kts 55°
2026-05-05 13:27 63.10514 -75.30092 34955 ft 516 kts 55°
2026-05-05 13:27 63.12897 -75.24152 35401 ft 515 kts 54°
2026-05-05 13:27 63.15274 -75.18214 35813 ft 514 kts 54°
2026-05-05 13:28 63.17643 -75.12282 36212 ft 514 kts 54°
2026-05-05 13:28 63.19970 -75.06435 36613 ft 513 kts 53°
2026-05-05 13:28 63.22334 -75.00481 36846 ft 517 kts 53°
2026-05-05 13:28 63.24701 -74.94501 36869 ft 511 kts 53°
2026-05-05 13:29 63.29367 -74.82676 36864 ft 510 kts 54°
2026-05-05 13:29 63.34039 -74.70759 36867 ft 511 kts 54°
2026-05-05 13:30 63.38705 -74.58798 36868 ft 511 kts 54°
2026-05-05 13:30 63.43334 -74.46870 36867 ft 511 kts 54°
2026-05-05 13:31 63.47952 -74.34904 36869 ft 512 kts 54°
2026-05-05 13:31 63.52596 -74.22806 36873 ft 512 kts 54°
2026-05-05 13:32 63.57226 -74.10677 36871 ft 512 kts 54°
2026-05-05 13:32 63.61854 -73.98489 36874 ft 512 kts 54°
2026-05-05 13:33 63.66437 -73.86352 36892 ft 512 kts 55°
2026-05-05 13:33 63.71038 -73.74101 36888 ft 512 kts 55°
2026-05-05 13:34 63.75627 -73.61813 36875 ft 512 kts 55°
2026-05-05 13:34 63.80182 -73.49552 36876 ft 512 kts 55°
2026-05-05 13:35 63.84748 -73.37188 36877 ft 512 kts 55°
2026-05-05 13:35 63.89304 -73.24785 36876 ft 512 kts 55°
2026-05-05 13:36 63.93859 -73.12317 36879 ft 512 kts 56°
2026-05-05 13:36 63.98393 -72.99834 36879 ft 512 kts 56°
2026-05-05 13:37 64.02922 -72.87295 36880 ft 512 kts 56°
2026-05-05 13:37 64.07409 -72.74804 36885 ft 512 kts 56°
2026-05-05 13:38 64.11919 -72.62177 36891 ft 512 kts 56°
2026-05-05 13:38 64.16415 -72.49519 36899 ft 512 kts 56°
2026-05-05 13:39 64.20902 -72.36812 36906 ft 512 kts 56°
2026-05-05 13:39 64.25343 -72.24164 36913 ft 512 kts 56°
2026-05-05 13:40 64.29804 -72.11387 36921 ft 512 kts 56°
2026-05-05 13:40 64.34255 -71.98565 36931 ft 512 kts 56°
2026-05-05 13:41 64.38694 -71.85701 36939 ft 512 kts 57°
2026-05-05 13:41 64.43127 -71.72781 36957 ft 512 kts 57°
2026-05-05 13:42 64.47516 -71.59918 36964 ft 512 kts 57°
2026-05-05 13:42 64.51927 -71.46916 36962 ft 513 kts 57°
2026-05-05 13:43 64.56328 -71.33865 36945 ft 513 kts 57°
2026-05-05 13:43 64.60716 -71.20774 36955 ft 513 kts 57°
2026-05-05 13:44 64.65095 -71.07636 36963 ft 513 kts 57°
2026-05-05 13:44 64.69430 -70.94553 36971 ft 513 kts 57°
2026-05-05 13:45 64.73792 -70.81311 36971 ft 514 kts 57°
2026-05-05 13:45 64.78140 -70.68033 36971 ft 514 kts 58°
2026-05-05 13:46 64.82482 -70.54691 36975 ft 514 kts 58°
2026-05-05 13:46 64.86790 -70.41395 36979 ft 515 kts 58°
2026-05-05 13:47 64.91121 -70.27978 36977 ft 515 kts 58°
2026-05-05 13:47 64.95442 -70.14522 36983 ft 515 kts 58°
2026-05-05 13:48 64.99665 -70.00887 36990 ft 512 kts 61°
2026-05-05 13:48 65.03290 -69.86588 36987 ft 509 kts 65°
2026-05-05 13:49 65.06882 -69.72134 36991 ft 510 kts 64°
2026-05-05 13:49 65.10504 -69.57661 36996 ft 510 kts 65°
2026-05-05 13:50 65.14088 -69.43151 36998 ft 509 kts 65°
2026-05-05 13:50 65.17621 -69.28678 37005 ft 509 kts 65°
2026-05-05 13:51 65.21157 -69.14072 37006 ft 509 kts 65°
2026-05-05 13:51 65.24685 -68.99397 37015 ft 510 kts 65°
2026-05-05 13:52 65.28195 -68.84701 37025 ft 510 kts 65°
2026-05-05 13:52 65.31692 -68.69956 37030 ft 510 kts 65°
2026-05-05 13:53 65.35151 -68.55279 37028 ft 509 kts 65°
2026-05-05 13:53 65.38621 -68.40454 37041 ft 509 kts 65°
2026-05-05 13:54 65.42074 -68.25588 37041 ft 511 kts 66°
2026-05-05 13:54 65.45523 -68.10649 37053 ft 511 kts 66°
2026-05-05 13:55 65.48930 -67.95791 37058 ft 511 kts 66°
2026-05-05 13:55 65.52351 -67.80766 37062 ft 511 kts 66°
2026-05-05 13:56 65.55759 -67.65691 37065 ft 511 kts 66°
2026-05-05 13:56 65.59148 -67.50594 37069 ft 511 kts 66°
2026-05-05 13:57 65.62502 -67.35546 37066 ft 511 kts 66°
2026-05-05 13:57 65.65861 -67.20376 37065 ft 511 kts 66°
2026-05-05 13:58 65.69204 -67.05170 37066 ft 511 kts 66°
2026-05-05 13:58 65.72536 -66.89899 37075 ft 512 kts 66°
2026-05-05 13:59 65.77511 -66.66899 37077 ft 512 kts 66°
2026-05-05 14:00 65.82430 -66.43909 37071 ft 512 kts 66°
2026-05-05 14:00 65.85705 -66.28463 37072 ft 512 kts 66°
2026-05-05 14:01 65.88967 -66.12967 37066 ft 513 kts 66°
2026-05-05 14:01 65.92194 -65.97520 37070 ft 513 kts 67°
2026-05-05 14:02 65.95423 -65.81954 37062 ft 513 kts 67°
2026-05-05 14:02 65.98637 -65.66337 37068 ft 513 kts 67°
2026-05-05 14:03 66.01840 -65.50667 37069 ft 513 kts 67°
2026-05-05 14:03 66.05028 -65.34950 37076 ft 514 kts 67°
2026-05-05 14:04 66.08180 -65.19289 37084 ft 513 kts 67°
2026-05-05 14:04 66.11331 -65.03521 37104 ft 512 kts 67°
2026-05-05 14:05 66.14465 -64.87715 37136 ft 512 kts 67°
2026-05-05 14:05 66.17579 -64.71887 37157 ft 512 kts 68°
2026-05-05 14:06 66.20654 -64.56140 37195 ft 512 kts 68°
2026-05-05 14:06 66.23738 -64.40225 37222 ft 512 kts 68°
2026-05-05 14:07 66.26803 -64.24283 37244 ft 512 kts 68°
2026-05-05 14:07 66.29856 -64.08284 37257 ft 512 kts 68°
2026-05-05 14:08 66.32892 -63.92245 37274 ft 513 kts 68°
2026-05-05 14:08 66.35895 -63.76254 37285 ft 513 kts 68°
2026-05-05 14:09 66.38903 -63.60110 37316 ft 514 kts 68°
2026-05-05 14:09 66.41897 -63.43915 37322 ft 514 kts 68°
2026-05-05 14:10 66.44880 -63.27649 37324 ft 514 kts 68°
2026-05-05 14:10 66.47821 -63.11481 37320 ft 515 kts 68°
2026-05-05 14:11 66.50772 -62.95126 37326 ft 515 kts 69°
2026-05-05 14:11 66.53708 -62.78724 37326 ft 515 kts 69°
2026-05-05 14:12 66.56623 -62.62304 37323 ft 515 kts 69°
2026-05-05 14:12 66.59506 -62.45922 37332 ft 516 kts 69°
2026-05-05 14:13 66.62390 -62.29411 37330 ft 516 kts 69°
2026-05-05 14:13 66.65260 -62.12835 37326 ft 516 kts 69°
2026-05-05 14:14 66.68111 -61.96228 37322 ft 515 kts 69°
2026-05-05 14:14 66.70942 -61.79599 37313 ft 516 kts 69°
2026-05-05 14:15 66.73759 -61.62914 37309 ft 516 kts 69°
2026-05-05 14:15 66.76542 -61.46283 37318 ft 516 kts 69°
2026-05-05 14:16 66.79326 -61.29500 37311 ft 517 kts 69°
2026-05-05 14:16 66.82096 -61.12660 37308 ft 517 kts 69°
2026-05-05 14:17 66.84829 -60.95897 37305 ft 518 kts 70°
2026-05-05 14:17 66.87565 -60.78972 37307 ft 518 kts 70°
2026-05-05 14:18 66.90288 -60.61978 37304 ft 518 kts 70°
2026-05-05 14:18 66.92992 -60.44949 37300 ft 519 kts 70°
2026-05-05 14:19 66.95692 -60.27863 37306 ft 520 kts 70°
2026-05-05 14:19 66.98348 -60.10820 37297 ft 519 kts 72°
2026-05-05 14:20 67.00128 -59.93022 37293 ft 516 kts 84°
2026-05-05 14:20 67.00712 -59.74806 37280 ft 514 kts 88°
2026-05-05 14:21 67.01267 -59.56675 37278 ft 515 kts 88°
2026-05-05 14:21 67.01811 -59.38538 37275 ft 515 kts 88°
2026-05-05 14:22 67.02315 -59.20280 37262 ft 515 kts 89°
2026-05-05 14:22 67.02789 -59.01980 37252 ft 515 kts 89°
2026-05-05 14:23 67.03241 -58.83668 37244 ft 516 kts 89°
2026-05-05 14:23 67.03669 -58.65453 37237 ft 516 kts 89°
2026-05-05 14:24 67.04079 -58.47096 37227 ft 517 kts 89°
2026-05-05 14:24 67.04469 -58.28701 37219 ft 517 kts 89°
2026-05-05 14:25 67.04838 -58.10329 37212 ft 517 kts 89°
2026-05-05 14:25 67.05183 -57.92040 37208 ft 517 kts 89°
2026-05-05 14:26 67.05510 -57.73614 37199 ft 518 kts 89°
2026-05-05 14:26 67.05815 -57.55197 37196 ft 518 kts 89°
2026-05-05 14:27 67.06100 -57.36749 37186 ft 518 kts 89°
2026-05-05 14:27 67.06363 -57.18296 37180 ft 518 kts 89°
2026-05-05 14:28 67.06603 -56.99958 37175 ft 518 kts 90°
2026-05-05 14:28 67.06824 -56.81477 37170 ft 519 kts 90°
2026-05-05 14:29 67.07023 -56.63034 37166 ft 519 kts 90°
2026-05-05 14:29 67.07201 -56.44586 37162 ft 519 kts 90°
2026-05-05 14:30 67.07357 -56.26060 37156 ft 520 kts 90°
2026-05-05 14:30 67.07493 -56.07504 37154 ft 520 kts 90°
2026-05-05 14:31 67.07607 -55.88958 37150 ft 521 kts 90°
2026-05-05 14:31 67.07700 -55.70382 37147 ft 521 kts 90°
2026-05-05 14:32 67.07771 -55.51903 37152 ft 521 kts 90°
2026-05-05 14:32 67.07820 -55.33289 37147 ft 522 kts 90°
2026-05-05 14:33 67.07848 -55.14677 37140 ft 522 kts 90°
2026-05-05 14:33 67.07854 -54.96060 37141 ft 522 kts 90°
2026-05-05 14:34 67.07839 -54.77430 37132 ft 522 kts 90°
2026-05-05 14:34 67.07802 -54.58944 37129 ft 522 kts 91°
2026-05-05 14:35 67.07743 -54.40320 37126 ft 522 kts 91°
2026-05-05 14:35 67.07663 -54.21679 37126 ft 522 kts 91°
2026-05-05 14:36 67.07560 -54.03052 37121 ft 523 kts 91°
2026-05-05 14:36 67.07437 -53.84433 37122 ft 523 kts 91°
2026-05-05 14:37 67.07291 -53.65873 37120 ft 523 kts 91°
2026-05-05 14:37 67.07124 -53.47226 37121 ft 523 kts 91°
2026-05-05 14:38 67.06934 -53.28549 37125 ft 524 kts 91°
2026-05-05 14:38 67.06723 -53.09871 37123 ft 524 kts 91°
2026-05-05 14:39 67.06490 -52.91322 37124 ft 524 kts 91°
2026-05-05 14:39 67.06236 -52.72634 37132 ft 525 kts 92°
2026-05-05 14:40 67.05958 -52.53932 37140 ft 525 kts 92°
2026-05-05 14:40 67.05658 -52.35212 37146 ft 526 kts 92°
2026-05-05 14:41 67.05336 -52.16493 37150 ft 526 kts 92°
2026-05-05 14:41 67.04994 -51.97875 37145 ft 526 kts 92°
2026-05-05 14:42 67.04629 -51.79151 37156 ft 527 kts 92°
2026-05-05 14:42 67.04240 -51.60415 37153 ft 527 kts 92°
2026-05-05 14:43 67.03828 -51.41639 37157 ft 528 kts 92°
2026-05-05 14:43 67.03395 -51.22880 37158 ft 528 kts 92°
2026-05-05 14:44 67.02943 -51.04236 37159 ft 528 kts 92°
2026-05-05 14:44 67.02465 -50.85466 37162 ft 529 kts 92°
2026-05-05 14:45 67.01964 -50.66679 37157 ft 529 kts 93°
2026-05-05 14:45 67.01443 -50.47923 37158 ft 529 kts 93°
2026-05-05 14:46 67.00908 -50.29265 37149 ft 529 kts 93°
2026-05-05 14:46 67.00359 -50.10498 37151 ft 530 kts 93°
2026-05-05 14:47 66.99492 -49.91772 37148 ft 531 kts 99°
2026-05-05 14:47 66.98167 -49.73189 37160 ft 532 kts 98°
2026-05-05 14:48 66.96948 -49.54682 37167 ft 532 kts 98°
2026-05-05 14:48 66.95698 -49.36058 37181 ft 533 kts 98°
2026-05-05 14:49 66.94407 -49.17453 37197 ft 533 kts 99°
2026-05-05 14:49 66.93084 -48.98849 37204 ft 533 kts 99°
2026-05-05 14:50 66.91735 -48.80237 37224 ft 534 kts 99°
2026-05-05 14:50 66.90374 -48.61776 37227 ft 534 kts 99°
2026-05-05 14:51 66.88984 -48.43231 37239 ft 534 kts 99°
2026-05-05 14:51 66.87570 -48.24679 37236 ft 534 kts 99°
2026-05-05 14:52 66.86135 -48.06156 37234 ft 534 kts 99°
2026-05-05 14:52 66.84686 -47.87743 37232 ft 535 kts 100°
2026-05-05 14:53 66.83204 -47.69220 37234 ft 535 kts 100°
2026-05-05 14:53 66.81701 -47.50722 37236 ft 536 kts 100°
2026-05-05 14:54 66.80176 -47.32235 37243 ft 536 kts 100°
2026-05-05 14:54 66.78624 -47.13722 37248 ft 536 kts 100°
2026-05-05 14:55 66.77065 -46.95385 37254 ft 537 kts 100°
2026-05-05 14:55 66.75469 -46.76901 37264 ft 537 kts 100°
2026-05-05 14:56 66.73852 -46.58448 37283 ft 537 kts 101°
2026-05-05 14:56 66.72211 -46.40000 37298 ft 538 kts 101°
2026-05-05 14:57 66.70562 -46.21715 37319 ft 538 kts 101°
2026-05-05 14:57 66.68876 -46.03275 37352 ft 538 kts 101°
2026-05-05 14:58 66.67171 -45.84903 37373 ft 539 kts 101°
2026-05-05 14:58 66.65439 -45.66494 37406 ft 539 kts 101°
2026-05-05 14:59 66.63701 -45.48259 37437 ft 539 kts 101°
2026-05-05 14:59 66.61927 -45.29910 37475 ft 539 kts 101°
2026-05-05 15:00 66.60438 -45.14693 37482 ft 539 kts 101°
2026-05-05 15:00 66.58315 -44.93290 37531 ft 539 kts 101°
2026-05-05 15:01 66.56490 -44.75140 37553 ft 539 kts 102°
2026-05-05 15:01 66.54630 -44.56888 37572 ft 540 kts 102°
2026-05-05 15:02 66.52749 -44.38667 37588 ft 540 kts 102°
2026-05-05 15:02 66.50844 -44.20441 37613 ft 540 kts 102°
2026-05-05 15:03 66.48930 -44.02354 37630 ft 541 kts 102°
2026-05-05 15:03 66.46981 -43.84173 37642 ft 541 kts 102°
2026-05-05 15:04 66.45011 -43.66017 37663 ft 541 kts 102°
2026-05-05 15:04 66.43016 -43.47851 37680 ft 542 kts 102°
2026-05-05 15:05 66.40002 -43.20821 37690 ft 542 kts 102°
2026-05-05 15:06 66.37954 -43.02729 37698 ft 542 kts 103°
2026-05-05 15:06 66.35887 -42.84677 37703 ft 542 kts 103°
2026-05-05 15:07 66.33797 -42.66642 37712 ft 542 kts 103°
2026-05-05 15:07 66.31687 -42.48639 37715 ft 542 kts 103°
2026-05-05 15:08 66.29571 -42.30795 37724 ft 543 kts 103°
2026-05-05 15:08 66.27413 -42.12797 37725 ft 543 kts 103°
2026-05-05 15:09 66.25237 -41.94854 37727 ft 543 kts 103°
2026-05-05 15:09 66.23040 -41.76943 37715 ft 543 kts 103°
2026-05-05 15:10 66.20834 -41.59156 37719 ft 544 kts 104°
2026-05-05 15:10 66.18594 -41.41286 37708 ft 544 kts 104°
2026-05-05 15:11 66.16330 -41.23433 37712 ft 544 kts 104°
2026-05-05 15:11 66.14047 -41.05615 37718 ft 544 kts 104°
2026-05-05 15:12 66.11744 -40.87830 37726 ft 544 kts 104°
2026-05-05 15:12 66.09432 -40.70169 37725 ft 545 kts 104°
2026-05-05 15:13 66.07084 -40.52422 37725 ft 545 kts 105°
2026-05-05 15:13 66.04716 -40.34687 37722 ft 545 kts 105°
2026-05-05 15:14 66.02339 -40.16979 37719 ft 545 kts 105°
2026-05-05 15:14 65.99916 -39.99453 37705 ft 546 kts 107°
2026-05-05 15:15 65.97142 -39.82046 37697 ft 547 kts 108°
2026-05-05 15:15 65.94442 -39.64632 37683 ft 547 kts 108°
2026-05-05 15:16 65.91729 -39.47192 37674 ft 548 kts 108°
2026-05-05 15:16 65.89004 -39.29931 37666 ft 548 kts 108°
2026-05-05 15:17 65.86220 -39.12564 37657 ft 548 kts 108°
2026-05-05 15:17 65.83417 -38.95268 37645 ft 549 kts 109°
2026-05-05 15:18 65.80587 -38.77970 37635 ft 549 kts 109°
2026-05-05 15:18 65.77758 -38.60832 37624 ft 549 kts 109°
2026-05-05 15:19 65.74886 -38.43586 37613 ft 549 kts 109°
2026-05-05 15:19 65.71997 -38.26396 37609 ft 549 kts 109°
2026-05-05 15:20 65.69090 -38.09248 37610 ft 550 kts 109°
2026-05-05 15:20 65.66159 -37.92109 37598 ft 550 kts 110°
2026-05-05 15:21 65.63226 -37.75119 37596 ft 551 kts 110°
2026-05-05 15:21 65.60250 -37.58022 37596 ft 551 kts 110°
2026-05-05 15:22 65.57256 -37.40974 37594 ft 551 kts 110°
2026-05-05 15:22 65.54240 -37.23941 37591 ft 552 kts 110°
2026-05-05 15:23 65.51204 -37.06951 37587 ft 552 kts 110°
2026-05-05 15:23 65.48170 -36.90108 37590 ft 552 kts 110°
2026-05-05 15:24 65.45095 -36.73189 37586 ft 552 kts 111°
2026-05-05 15:24 65.42000 -36.56303 37582 ft 552 kts 111°
2026-05-05 15:25 65.38887 -36.39456 37579 ft 552 kts 111°
2026-05-05 15:25 65.35771 -36.22737 37575 ft 552 kts 111°
2026-05-05 15:26 65.32623 -36.05988 37567 ft 553 kts 111°
2026-05-05 15:26 65.29447 -35.89225 37549 ft 553 kts 111°
2026-05-05 15:27 65.26252 -35.72504 37545 ft 553 kts 111°
2026-05-05 15:27 65.23059 -35.55927 37559 ft 554 kts 111°
2026-05-05 15:28 65.19827 -35.39281 37544 ft 554 kts 112°
2026-05-05 15:28 65.16569 -35.22643 37536 ft 555 kts 112°
2026-05-05 15:29 65.13294 -35.06045 37537 ft 555 kts 112°
2026-05-05 15:29 65.09995 -34.89466 37534 ft 555 kts 112°
2026-05-05 15:30 65.06715 -34.73112 37523 ft 556 kts 112°
2026-05-05 15:30 65.03378 -34.56605 37515 ft 556 kts 112°
2026-05-05 15:31 65.00021 -34.40130 37510 ft 556 kts 113°
2026-05-05 15:31 64.96646 -34.23697 37499 ft 556 kts 113°
2026-05-05 15:32 64.93255 -34.07316 37489 ft 556 kts 113°
2026-05-05 15:32 64.89872 -33.91095 37481 ft 556 kts 113°
2026-05-05 15:33 64.86445 -33.74796 37473 ft 556 kts 114°
2026-05-05 15:33 64.82998 -33.58525 37465 ft 556 kts 114°
2026-05-05 15:34 64.80121 -33.45041 37455 ft 556 kts 114°
2026-05-05 15:34 64.76069 -33.26196 37452 ft 557 kts 114°
2026-05-05 15:35 64.72567 -33.10040 37445 ft 557 kts 114°
2026-05-05 15:35 64.69042 -32.93903 37422 ft 557 kts 115°
2026-05-05 15:36 64.66100 -32.80528 37440 ft 557 kts 115°
2026-05-05 15:36 64.61968 -32.61886 37413 ft 557 kts 115°
2026-05-05 15:37 64.58391 -32.45872 37412 ft 557 kts 115°
2026-05-05 15:37 64.55408 -32.32610 37409 ft 557 kts 115°
2026-05-05 15:38 64.51801 -32.16684 37402 ft 556 kts 115°
2026-05-05 15:38 64.47591 -31.98248 37391 ft 556 kts 116°
2026-05-05 15:39 64.43956 -31.82451 37387 ft 555 kts 116°
2026-05-05 15:39 64.40927 -31.69374 37383 ft 555 kts 116°
2026-05-05 15:40 64.37265 -31.53669 37378 ft 554 kts 116°
2026-05-05 15:40 64.33592 -31.38032 37375 ft 554 kts 116°
2026-05-05 15:41 64.29904 -31.22445 37367 ft 554 kts 116°
2026-05-05 15:41 64.26224 -31.07000 37365 ft 554 kts 117°
2026-05-05 15:42 64.22507 -30.91511 37359 ft 554 kts 117°
2026-05-05 15:42 64.18769 -30.76044 37357 ft 554 kts 117°
2026-05-05 15:43 64.15014 -30.60618 37354 ft 554 kts 117°
2026-05-05 15:43 64.11243 -30.45230 37349 ft 554 kts 117°
2026-05-05 15:44 64.07479 -30.29963 37347 ft 555 kts 117°
2026-05-05 15:44 64.03687 -30.14635 37349 ft 555 kts 117°
2026-05-05 15:45 63.99875 -29.99318 37338 ft 555 kts 118°
2026-05-05 15:45 63.96921 -29.83213 37334 ft 550 kts 104°
2026-05-05 15:46 63.94674 -29.66564 37330 ft 551 kts 105°
2026-05-05 15:46 63.92233 -29.50161 37329 ft 552 kts 106°
2026-05-05 15:47 63.89659 -29.33717 37327 ft 553 kts 107°
2026-05-05 15:47 63.87044 -29.17317 37319 ft 553 kts 107°
2026-05-05 15:48 63.84403 -29.00922 37321 ft 553 kts 107°
2026-05-05 15:48 63.81762 -28.84674 37316 ft 554 kts 108°
2026-05-05 15:49 63.79083 -28.68332 37311 ft 554 kts 108°
2026-05-05 15:49 63.76383 -28.52007 37312 ft 554 kts 108°
2026-05-05 15:50 63.73666 -28.35718 37308 ft 554 kts 108°
2026-05-05 15:50 63.70950 -28.19577 37302 ft 554 kts 108°
2026-05-05 15:51 63.68196 -28.03349 37301 ft 554 kts 108°
2026-05-05 15:51 63.65425 -27.87156 37297 ft 554 kts 109°
2026-05-05 15:52 63.62640 -27.71022 37290 ft 554 kts 109°
2026-05-05 15:52 63.59852 -27.55009 37288 ft 554 kts 109°
2026-05-05 15:53 63.57029 -27.38928 37287 ft 554 kts 109°
2026-05-05 15:53 63.54188 -27.22876 37284 ft 554 kts 109°
2026-05-05 15:54 63.51330 -27.06859 37287 ft 553 kts 109°
2026-05-05 15:54 63.48471 -26.90975 37298 ft 553 kts 110°
2026-05-05 15:55 63.45576 -26.75019 37290 ft 553 kts 110°
2026-05-05 15:55 63.42666 -26.59108 37275 ft 553 kts 110°
2026-05-05 15:56 63.39739 -26.43234 37277 ft 553 kts 110°
2026-05-05 15:56 63.36791 -26.27372 37274 ft 553 kts 110°
2026-05-05 15:57 63.33847 -26.11658 37269 ft 553 kts 110°
2026-05-05 15:57 63.30864 -25.95862 37264 ft 553 kts 110°
2026-05-05 15:58 63.27867 -25.80118 37266 ft 553 kts 111°
2026-05-05 15:58 63.24850 -25.64395 37264 ft 553 kts 111°
2026-05-05 15:59 63.21821 -25.48732 37264 ft 553 kts 111°
2026-05-05 15:59 63.18796 -25.33207 37261 ft 552 kts 111°
2026-05-05 16:00 63.15735 -25.17618 37258 ft 552 kts 111°
2026-05-05 16:00 63.12658 -25.02064 37252 ft 552 kts 111°
2026-05-05 16:01 63.09564 -24.86549 37255 ft 551 kts 112°
2026-05-05 16:01 63.06479 -24.71193 37250 ft 551 kts 112°
2026-05-05 16:02 63.03352 -24.55748 37247 ft 551 kts 112°
2026-05-05 16:02 63.00218 -24.40376 37245 ft 551 kts 112°
2026-05-05 16:03 62.97063 -24.25023 37247 ft 551 kts 112°
2026-05-05 16:03 62.93891 -24.09694 37253 ft 551 kts 112°
2026-05-05 16:04 62.90720 -23.94489 37243 ft 551 kts 113°
2026-05-05 16:04 62.87516 -23.79241 37245 ft 551 kts 113°
2026-05-05 16:05 62.84294 -23.64012 37241 ft 551 kts 113°
2026-05-05 16:05 62.81059 -23.48832 37240 ft 550 kts 113°
2026-05-05 16:06 62.77808 -23.33692 37235 ft 550 kts 114°
2026-05-05 16:06 62.74567 -23.18706 37233 ft 549 kts 114°
2026-05-05 16:07 62.71291 -23.03663 37229 ft 549 kts 114°
2026-05-05 16:07 62.68000 -22.88657 37227 ft 549 kts 114°
2026-05-05 16:08 62.64696 -22.73700 37220 ft 549 kts 114°
2026-05-05 16:08 62.61371 -22.58753 37215 ft 549 kts 115°
2026-05-05 16:09 62.58057 -22.43957 37224 ft 549 kts 115°
2026-05-05 16:09 62.54703 -22.29090 37223 ft 548 kts 115°
2026-05-05 16:10 62.51337 -22.14269 37221 ft 548 kts 115°
2026-05-05 16:10 62.47981 -21.99597 37224 ft 548 kts 115°
2026-05-05 16:11 62.44586 -21.84855 37215 ft 547 kts 115°
2026-05-05 16:12 62.37762 -21.55522 37209 ft 547 kts 116°
2026-05-05 16:13 62.29182 -21.19199 37213 ft 546 kts 116°
2026-05-05 16:13 62.25716 -21.04697 37213 ft 545 kts 116°
2026-05-05 16:14 62.18775 -20.75939 37218 ft 545 kts 117°
2026-05-05 16:15 62.11755 -20.47236 37217 ft 544 kts 117°
2026-05-05 16:16 62.04698 -20.18679 37220 ft 544 kts 117°
2026-05-05 16:17 61.99212 -19.97607 37224 ft 544 kts 122°
2026-05-05 16:18 61.92790 -19.77725 37226 ft 544 kts 125°
2026-05-05 16:19 61.86848 -19.59353 37225 ft 544 kts 124°
2026-05-05 16:19 61.80441 -19.39645 37230 ft 544 kts 125°
2026-05-05 16:20 61.71795 -19.13408 37250 ft 544 kts 125°
2026-05-05 16:22 61.60947 -18.80956 37232 ft 543 kts 126°
2026-05-05 16:23 61.52202 -18.55121 37229 ft 543 kts 126°
2026-05-05 16:23 61.45642 -18.35932 37231 ft 542 kts 126°
2026-05-05 16:24 61.41238 -18.23138 37232 ft 542 kts 126°
2026-05-05 16:25 61.34613 -18.04022 37229 ft 542 kts 127°
2026-05-05 16:25 61.27992 -17.85076 37233 ft 541 kts 127°
2026-05-05 16:26 61.19097 -17.59866 37232 ft 541 kts 127°
2026-05-05 16:27 61.14637 -17.47329 37231 ft 540 kts 127°
2026-05-05 16:27 61.10166 -17.34829 37234 ft 540 kts 127°
2026-05-05 16:28 61.05722 -17.22469 37231 ft 540 kts 127°
2026-05-05 16:28 61.01237 -17.10063 37230 ft 539 kts 127°
2026-05-05 16:29 60.96803 -16.97864 37233 ft 539 kts 128°
2026-05-05 16:29 60.92240 -16.85376 37230 ft 538 kts 128°
2026-05-05 16:30 60.87761 -16.73184 37357 ft 538 kts 128°
2026-05-05 16:30 60.85493 -16.67034 37244 ft 540 kts 128°
2026-05-05 16:30 60.83222 -16.60892 37249 ft 540 kts 128°
2026-05-05 16:31 60.78685 -16.48670 37239 ft 539 kts 128°
2026-05-05 16:31 60.74143 -16.36501 37235 ft 538 kts 128°
2026-05-05 16:32 60.69602 -16.24397 37234 ft 537 kts 128°
2026-05-05 16:32 60.65084 -16.12418 37232 ft 536 kts 128°
2026-05-05 16:33 60.60533 -16.00413 37226 ft 535 kts 129°
2026-05-05 16:33 60.55978 -15.88462 37226 ft 534 kts 129°
2026-05-05 16:34 60.51415 -15.76547 37222 ft 534 kts 129°
2026-05-05 16:34 60.46876 -15.64758 37221 ft 533 kts 129°
2026-05-05 16:35 60.42303 -15.52941 37215 ft 533 kts 129°
2026-05-05 16:35 60.37723 -15.41167 37214 ft 532 kts 129°
2026-05-05 16:36 60.33134 -15.29426 37213 ft 532 kts 129°
2026-05-05 16:36 60.28539 -15.17733 37212 ft 532 kts 130°
2026-05-05 16:37 60.23970 -15.06161 37211 ft 531 kts 130°
2026-05-05 16:37 60.19359 -14.94544 37212 ft 531 kts 130°
2026-05-05 16:38 60.14738 -14.82958 37214 ft 531 kts 130°
2026-05-05 16:38 60.10109 -14.71408 37212 ft 531 kts 130°
2026-05-05 16:39 60.05501 -14.59972 37216 ft 531 kts 130°
2026-05-05 16:39 60.00854 -14.48493 37214 ft 531 kts 130°
2026-05-05 16:40 59.96195 -14.37042 37217 ft 531 kts 130°
2026-05-05 16:40 59.91528 -14.25627 37222 ft 531 kts 130°
2026-05-05 16:41 59.86877 -14.14307 37228 ft 531 kts 130°
2026-05-05 16:41 59.82188 -14.02950 37227 ft 531 kts 131°
2026-05-05 16:42 59.77489 -13.91625 37230 ft 531 kts 131°
2026-05-05 16:42 59.72787 -13.80348 37226 ft 530 kts 131°
2026-05-05 16:43 59.68083 -13.69121 37222 ft 530 kts 131°
2026-05-05 16:43 59.63401 -13.57999 37214 ft 529 kts 131°
2026-05-05 16:44 59.58683 -13.46847 37213 ft 529 kts 131°
2026-05-05 16:44 59.53967 -13.35751 37210 ft 528 kts 131°
2026-05-05 16:45 59.49243 -13.24691 37212 ft 528 kts 131°
2026-05-05 16:45 59.44510 -13.13662 37210 ft 527 kts 131°
2026-05-05 16:46 59.39811 -13.02765 37003 ft 526 kts 132°
2026-05-05 16:46 59.37450 -12.97308 37207 ft 522 kts 132°
2026-05-05 16:46 59.35096 -12.91880 37190 ft 523 kts 132°
2026-05-05 16:47 59.30369 -12.81021 37200 ft 525 kts 132°
2026-05-05 16:47 59.25620 -12.70161 37214 ft 526 kts 132°
2026-05-05 16:48 59.20889 -12.59393 37210 ft 527 kts 132°
2026-05-05 16:48 59.16111 -12.48569 37230 ft 527 kts 133°
2026-05-05 16:49 59.11315 -12.37754 37232 ft 527 kts 133°
2026-05-05 16:49 59.06518 -12.26989 37229 ft 526 kts 133°
2026-05-05 16:50 59.01750 -12.16337 37225 ft 526 kts 133°
2026-05-05 16:50 58.96949 -12.05661 37218 ft 525 kts 133°
2026-05-05 16:51 58.92180 -11.95104 37218 ft 524 kts 133°
2026-05-05 16:51 58.87370 -11.84505 37213 ft 524 kts 133°
2026-05-05 16:52 58.84956 -11.79206 37478 ft 527 kts 133°
2026-05-05 16:52 58.82531 -11.73894 37943 ft 526 kts 133°
2026-05-05 16:52 58.80106 -11.68592 38355 ft 527 kts 133°
2026-05-05 16:52 58.77680 -11.63300 38790 ft 527 kts 133°
2026-05-05 16:53 58.75261 -11.58037 39103 ft 528 kts 133°
2026-05-05 16:53 58.72841 -11.52784 39196 ft 528 kts 133°
2026-05-05 16:53 58.68017 -11.42344 39205 ft 521 kts 133°
2026-05-05 16:54 58.63173 -11.31914 39205 ft 523 kts 133°
2026-05-05 16:54 58.58322 -11.21514 39205 ft 523 kts 134°
2026-05-05 16:55 58.53464 -11.11143 39208 ft 523 kts 134°
2026-05-05 16:55 58.48636 -11.00883 39206 ft 522 kts 134°
2026-05-05 16:56 58.43772 -10.90593 39201 ft 522 kts 134°
2026-05-05 16:56 58.38899 -10.80331 39191 ft 521 kts 134°
2026-05-05 16:57 58.34029 -10.70119 39192 ft 521 kts 134°
2026-05-05 16:57 58.29184 -10.60007 39194 ft 520 kts 134°
2026-05-05 16:58 58.24304 -10.49863 39195 ft 520 kts 134°
2026-05-05 16:58 58.19416 -10.39747 39193 ft 520 kts 134°
2026-05-05 16:59 58.14518 -10.29642 39193 ft 520 kts 134°
2026-05-05 16:59 58.09652 -10.19633 39196 ft 520 kts 134°
2026-05-05 17:00 58.04749 -10.09590 39199 ft 520 kts 134°
2026-05-05 17:00 58.00181 -9.99027 39186 ft 523 kts 122°
2026-05-05 17:01 57.97089 -9.86646 39183 ft 524 kts 112°
2026-05-05 17:01 57.94380 -9.73919 39199 ft 523 kts 112°
2026-05-05 17:02 57.91653 -9.61316 39194 ft 523 kts 114°
2026-05-05 17:02 57.88182 -9.49346 39190 ft 521 kts 125°
2026-05-05 17:03 57.83695 -9.38729 39182 ft 518 kts 135°
2026-05-05 17:03 57.78768 -9.28849 39187 ft 518 kts 135°
2026-05-05 17:04 57.73901 -9.19005 39187 ft 518 kts 135°
2026-05-05 17:04 57.69004 -9.09121 39185 ft 518 kts 135°
2026-05-05 17:05 57.64101 -8.99280 39183 ft 517 kts 135°
2026-05-05 17:05 57.59187 -8.89473 39181 ft 517 kts 135°
2026-05-05 17:06 57.54330 -8.79823 39178 ft 516 kts 135°
2026-05-05 17:06 57.49412 -8.70095 39174 ft 516 kts 135°
2026-05-05 17:07 57.44490 -8.60397 39170 ft 515 kts 135°
2026-05-05 17:07 57.39566 -8.50736 39171 ft 515 kts 135°
2026-05-05 17:08 57.34632 -8.41097 39169 ft 515 kts 135°
2026-05-05 17:08 57.29737 -8.31574 39169 ft 514 kts 136°
2026-05-05 17:09 57.24797 -8.22002 39164 ft 514 kts 136°
2026-05-05 17:09 57.19852 -8.12460 39161 ft 514 kts 136°
2026-05-05 17:10 57.14906 -8.02957 39160 ft 514 kts 136°
2026-05-05 17:10 57.09983 -7.93537 39154 ft 514 kts 136°
2026-05-05 17:11 57.05025 -7.84087 39152 ft 514 kts 136°
2026-05-05 17:11 57.00052 -7.74647 39148 ft 514 kts 136°
2026-05-05 17:12 56.95113 -7.65312 39149 ft 513 kts 136°
2026-05-05 17:12 56.90139 -7.55948 39147 ft 513 kts 136°
2026-05-05 17:13 56.85160 -7.46612 39144 ft 513 kts 136°
2026-05-05 17:13 56.80176 -7.37305 39141 ft 512 kts 137°
2026-05-05 17:14 56.75193 -7.28037 39137 ft 512 kts 137°
2026-05-05 17:14 56.70238 -7.18858 39130 ft 511 kts 137°
2026-05-05 17:15 56.65246 -7.09648 39128 ft 511 kts 137°
2026-05-05 17:15 56.60255 -7.00476 39132 ft 510 kts 137°
2026-05-05 17:16 56.55257 -6.91329 39131 ft 510 kts 137°
2026-05-05 17:16 56.50264 -6.82226 39130 ft 510 kts 137°
2026-05-05 17:17 56.45292 -6.73199 39134 ft 509 kts 137°
2026-05-05 17:17 56.40294 -6.64159 39127 ft 509 kts 137°
2026-05-05 17:18 56.35290 -6.55142 39118 ft 508 kts 137°
2026-05-05 17:18 56.30284 -6.46159 39110 ft 508 kts 137°
2026-05-05 17:19 56.25277 -6.37210 39098 ft 507 kts 137°
2026-05-05 17:19 56.20297 -6.28342 39095 ft 507 kts 138°
2026-05-05 17:20 56.15287 -6.19455 39086 ft 506 kts 138°
2026-05-05 17:20 56.10269 -6.10589 39086 ft 506 kts 138°
2026-05-05 17:21 56.05255 -6.01765 39086 ft 505 kts 138°
2026-05-05 17:22 55.97721 -5.88569 39080 ft 505 kts 138°
2026-05-05 17:22 55.92742 -5.79890 39075 ft 505 kts 138°
2026-05-05 17:23 55.87705 -5.71143 39072 ft 504 kts 138°
2026-05-05 17:23 55.82671 -5.62434 39232 ft 504 kts 138°
2026-05-05 17:23 55.80143 -5.58074 39065 ft 508 kts 138°
2026-05-05 17:24 55.77606 -5.53707 39075 ft 507 kts 138°
2026-05-05 17:24 55.72531 -5.44993 39071 ft 507 kts 138°
2026-05-05 17:25 55.67499 -5.36387 39065 ft 506 kts 138°
2026-05-05 17:25 55.62435 -5.27759 39059 ft 505 kts 138°
2026-05-05 17:26 55.57371 -5.19161 39059 ft 504 kts 138°
2026-05-05 17:26 55.52341 -5.10656 39047 ft 504 kts 139°
2026-05-05 17:27 55.47306 -5.02174 39040 ft 503 kts 139°
2026-05-05 17:27 55.42246 -4.93680 39040 ft 503 kts 139°
2026-05-05 17:28 55.37176 -4.85203 39037 ft 502 kts 139°
2026-05-05 17:28 55.32133 -4.76800 39036 ft 502 kts 139°
2026-05-05 17:29 55.27042 -4.68350 39047 ft 501 kts 139°
2026-05-05 17:29 55.22004 -4.60017 39040 ft 501 kts 139°
2026-05-05 17:30 55.16930 -4.51656 39031 ft 501 kts 139°
2026-05-05 17:30 55.11859 -4.43331 39034 ft 501 kts 139°
2026-05-05 17:31 55.06777 -4.35018 39028 ft 501 kts 139°
2026-05-05 17:31 55.01708 -4.26756 39029 ft 500 kts 139°
2026-05-05 17:32 54.96671 -4.18577 39028 ft 500 kts 139°
2026-05-05 17:32 54.91575 -4.10332 39033 ft 500 kts 139°
2026-05-05 17:33 54.86481 -4.02120 39027 ft 500 kts 139°
2026-05-05 17:33 54.81379 -3.93923 39031 ft 500 kts 139°
2026-05-05 17:34 54.76274 -3.85752 39032 ft 499 kts 139°
2026-05-05 17:34 54.71200 -3.77660 39033 ft 499 kts 139°
2026-05-05 17:35 54.66094 -3.69546 39028 ft 499 kts 139°
2026-05-05 17:35 54.60979 -3.61447 39030 ft 498 kts 139°
2026-05-05 17:36 54.55867 -3.53380 39028 ft 498 kts 140°
2026-05-05 17:36 54.50747 -3.45331 39025 ft 498 kts 140°
2026-05-05 17:37 54.45660 -3.37360 39021 ft 498 kts 140°
2026-05-05 17:37 54.40530 -3.29351 39019 ft 498 kts 140°
2026-05-05 17:38 54.35394 -3.21360 39015 ft 498 kts 140°
2026-05-05 17:38 54.30253 -3.13385 39027 ft 498 kts 140°
2026-05-05 17:39 54.25146 -3.05481 39025 ft 498 kts 140°
2026-05-05 17:39 54.19892 -2.97781 39025 ft 496 kts 145°
2026-05-05 17:40 54.14136 -2.91365 39028 ft 494 kts 153°
2026-05-05 17:40 54.07923 -2.86432 39022 ft 491 kts 159°
2026-05-05 17:41 54.01640 -2.81900 39024 ft 491 kts 159°
2026-05-05 17:41 53.95189 -2.78143 39017 ft 489 kts 165°
2026-05-05 17:42 53.88729 -2.74760 39019 ft 489 kts 165°
2026-05-05 17:42 53.82225 -2.71337 39019 ft 489 kts 164°
2026-05-05 17:43 53.75733 -2.67922 39021 ft 489 kts 164°
2026-05-05 17:43 53.69237 -2.64516 39020 ft 489 kts 164°
2026-05-05 17:44 53.62742 -2.61121 39021 ft 488 kts 164°
2026-05-05 17:44 53.56333 -2.57782 39024 ft 488 kts 164°
2026-05-05 17:45 53.49848 -2.54415 39024 ft 488 kts 164°
2026-05-05 17:45 53.43356 -2.51053 39039 ft 487 kts 164°
2026-05-05 17:46 53.36880 -2.47712 39028 ft 487 kts 164°
2026-05-05 17:46 53.30448 -2.44404 39024 ft 487 kts 164°
2026-05-05 17:47 53.23928 -2.41061 39015 ft 487 kts 164°
2026-05-05 17:47 53.17524 -2.37787 38935 ft 484 kts 164°
2026-05-05 17:47 53.14312 -2.36148 38714 ft 478 kts 164°
2026-05-05 17:48 53.11136 -2.34531 38443 ft 476 kts 164°
2026-05-05 17:48 53.07986 -2.32930 38158 ft 477 kts 164°
2026-05-05 17:48 53.04847 -2.31215 37881 ft 478 kts 160°
2026-05-05 17:48 53.01799 -2.28978 37596 ft 479 kts 154°
2026-05-05 17:49 52.98902 -2.26233 37120 ft 480 kts 148°
2026-05-05 17:49 52.96091 -2.23234 36362 ft 482 kts 148°
2026-05-05 17:49 52.93260 -2.20229 35430 ft 485 kts 148°
2026-05-05 17:49 52.90403 -2.17218 34630 ft 487 kts 148°
2026-05-05 17:50 52.87589 -2.14268 34120 ft 481 kts 148°
2026-05-05 17:50 52.84847 -2.11403 33628 ft 475 kts 148°
2026-05-05 17:50 52.82075 -2.08513 33067 ft 469 kts 148°
2026-05-05 17:50 52.79337 -2.05663 32488 ft 465 kts 148°
2026-05-05 17:51 52.76603 -2.02822 31908 ft 460 kts 149°
2026-05-05 17:51 52.73907 -2.00025 31349 ft 456 kts 149°
2026-05-05 17:51 52.71268 -1.97292 30803 ft 452 kts 149°
2026-05-05 17:51 52.68618 -1.94552 30249 ft 448 kts 149°
2026-05-05 17:52 52.65988 -1.91836 29645 ft 444 kts 149°
2026-05-05 17:52 52.63426 -1.89192 29112 ft 438 kts 149°
2026-05-05 17:52 52.60860 -1.86550 28577 ft 432 kts 150°
2026-05-05 17:52 52.58328 -1.83946 28028 ft 427 kts 150°
2026-05-05 17:53 52.55815 -1.81364 27495 ft 423 kts 150°
2026-05-05 17:53 52.53341 -1.78826 26956 ft 418 kts 150°
2026-05-05 17:53 52.50883 -1.76309 26446 ft 414 kts 150°
2026-05-05 17:53 52.48447 -1.73818 25920 ft 411 kts 150°
2026-05-05 17:54 52.46033 -1.71353 25394 ft 407 kts 150°
2026-05-05 17:54 52.43637 -1.68909 24881 ft 404 kts 150°
2026-05-05 17:54 52.41285 -1.66513 24376 ft 402 kts 150°
2026-05-05 17:54 52.38916 -1.64103 23851 ft 400 kts 150°
2026-05-05 17:55 52.36562 -1.61712 23287 ft 398 kts 150°
2026-05-05 17:55 52.34222 -1.59336 22771 ft 394 kts 150°
2026-05-05 17:55 52.31907 -1.56989 22248 ft 390 kts 150°
2026-05-05 17:55 52.29613 -1.54666 21742 ft 387 kts 150°
2026-05-05 17:56 52.28100 -1.53135 21407 ft 384 kts 150°
2026-05-05 17:56 52.25836 -1.50848 20897 ft 382 kts 150°
2026-05-05 17:56 52.23587 -1.48579 20387 ft 379 kts 150°
2026-05-05 17:56 52.21379 -1.46230 19908 ft 381 kts 144°
2026-05-05 17:57 52.19339 -1.43436 19527 ft 386 kts 140°
2026-05-05 17:57 52.17305 -1.40554 19129 ft 388 kts 140°
2026-05-05 17:57 52.14610 -1.36779 18605 ft 385 kts 141°
2026-05-05 17:57 52.13240 -1.34868 18339 ft 383 kts 141°
2026-05-05 17:58 52.11256 -1.32106 17941 ft 380 kts 141°
2026-05-05 17:58 52.09246 -1.29312 17550 ft 378 kts 141°
2026-05-05 17:58 52.07243 -1.26530 17159 ft 377 kts 140°
2026-05-05 17:58 52.05283 -1.23810 16770 ft 375 kts 141°
2026-05-05 17:59 52.03300 -1.21062 16391 ft 373 kts 141°
2026-05-05 17:59 52.01352 -1.18365 16006 ft 371 kts 141°
2026-05-05 17:59 51.99398 -1.15664 15784 ft 363 kts 141°
2026-05-05 17:59 51.97528 -1.13081 15654 ft 350 kts 141°
2026-05-05 18:00 51.95703 -1.10562 15531 ft 338 kts 141°
2026-05-05 18:00 51.93955 -1.08152 15412 ft 327 kts 141°
2026-05-05 18:00 51.92254 -1.05807 15320 ft 316 kts 141°
2026-05-05 18:00 51.90621 -1.03560 15230 ft 305 kts 141°
2026-05-05 18:01 51.89030 -1.01372 15131 ft 295 kts 141°
2026-05-05 18:01 51.87487 -0.99252 15050 ft 286 kts 141°
2026-05-05 18:01 51.85994 -0.97134 14714 ft 287 kts 135°
2026-05-05 18:01 51.84780 -0.94584 14410 ft 288 kts 121°
2026-05-05 18:02 51.83893 -0.91684 14104 ft 287 kts 116°
2026-05-05 18:02 51.83031 -0.88799 13816 ft 286 kts 117°
2026-05-05 18:02 51.82150 -0.85917 13500 ft 285 kts 117°
2026-05-05 18:02 51.81283 -0.83098 13193 ft 283 kts 117°
2026-05-05 18:03 51.80418 -0.80289 12870 ft 282 kts 116°
2026-05-05 18:03 51.79547 -0.77457 12344 ft 281 kts 116°
2026-05-05 18:03 51.78681 -0.74640 11855 ft 279 kts 116°
2026-05-05 18:03 51.77821 -0.71842 11360 ft 277 kts 116°
2026-05-05 18:04 51.76969 -0.69073 10867 ft 275 kts 116°
2026-05-05 18:04 51.76120 -0.66317 10405 ft 273 kts 116°
2026-05-05 18:04 51.75277 -0.63591 9943 ft 271 kts 116°
2026-05-05 18:04 51.74444 -0.60903 9563 ft 264 kts 116°
2026-05-05 18:05 51.73629 -0.58277 9088 ft 260 kts 115°
2026-05-05 18:05 51.72592 -0.55914 8640 ft 258 kts 136°
2026-05-05 18:05 51.71514 -0.53694 8107 ft 254 kts 110°
2026-05-05 18:05 51.71018 -0.50994 7640 ft 250 kts 100°
2026-05-05 18:06 51.70688 -0.48257 7201 ft 246 kts 94°
2026-05-05 18:06 51.70625 -0.46415 6910 ft 244 kts 87°
2026-05-05 18:06 51.70662 -0.42778 6332 ft 241 kts 86°
2026-05-05 18:06 51.70691 -0.40093 5887 ft 238 kts 86°
2026-05-05 18:07 51.70719 -0.37471 5467 ft 236 kts 86°
2026-05-05 18:07 51.70740 -0.34830 5043 ft 235 kts 89°
2026-05-05 18:07 51.70384 -0.32291 4609 ft 237 kts 118°
2026-05-05 18:07 51.69255 -0.30372 4142 ft 240 kts 150°
2026-05-05 18:08 51.67662 -0.29643 3683 ft 241 kts 178°
2026-05-05 18:08 51.65987 -0.29671 3254 ft 240 kts 181°
2026-05-05 18:08 51.64428 -0.29744 3089 ft 238 kts 182°
2026-05-05 18:08 51.62782 -0.30442 3085 ft 255 kts 212°
2026-05-05 18:09 51.61548 -0.32332 3000 ft 240 kts 244°
2026-05-05 18:09 51.61092 -0.34814 3008 ft 235 kts 268°
2026-05-05 18:09 51.61060 -0.37415 2999 ft 232 kts 273°
2026-05-05 18:09 51.61076 -0.40022 3004 ft 233 kts 272°
2026-05-05 18:10 51.61045 -0.42638 2994 ft 234 kts 270°
2026-05-05 18:10 51.60962 -0.45243 3000 ft 234 kts 268°
2026-05-05 18:10 51.60848 -0.47842 3002 ft 233 kts 268°
2026-05-05 18:10 51.60720 -0.50430 3002 ft 235 kts 267°
2026-05-05 18:11 51.60591 -0.53040 2998 ft 233 kts 268°
2026-05-05 18:11 51.60470 -0.55651 2995 ft 234 kts 268°
2026-05-05 18:11 51.60347 -0.58271 3004 ft 235 kts 268°
2026-05-05 18:11 51.60226 -0.60854 3001 ft 235 kts 268°
2026-05-05 18:12 51.60103 -0.63409 3020 ft 221 kts 268°
2026-05-05 18:12 51.59983 -0.65824 2998 ft 215 kts 268°
2026-05-05 18:12 51.59863 -0.68159 3002 ft 208 kts 267°
2026-05-05 18:12 51.59744 -0.70496 2998 ft 211 kts 268°
2026-05-05 18:13 51.59619 -0.72856 3003 ft 212 kts 268°
2026-05-05 18:13 51.59487 -0.75225 3002 ft 213 kts 264°
2026-05-05 18:13 51.58929 -0.77429 3004 ft 216 kts 241°
2026-05-05 18:13 51.58146 -0.79503 2997 ft 216 kts 240°
2026-05-05 18:14 51.57367 -0.81565 3001 ft 215 kts 240°
2026-05-05 18:14 51.56588 -0.83627 3001 ft 215 kts 241°
2026-05-05 18:14 51.55809 -0.85674 3009 ft 216 kts 240°
2026-05-05 18:14 51.54935 -0.87624 2995 ft 213 kts 226°
2026-05-05 18:15 51.53725 -0.88803 2996 ft 200 kts 193°
2026-05-05 18:15 51.52354 -0.88965 3009 ft 198 kts 180°
2026-05-05 18:15 51.51027 -0.88644 2997 ft 193 kts 152°
2026-05-05 18:15 51.49972 -0.87351 3001 ft 190 kts 124°
2026-05-05 18:16 51.49235 -0.85588 2999 ft 190 kts 121°
2026-05-05 18:16 51.48512 -0.83827 3002 ft 189 kts 121°
2026-05-05 18:16 51.47931 -0.81989 3004 ft 186 kts 104°
2026-05-05 18:16 51.47699 -0.79963 2994 ft 184 kts 91°
2026-05-05 18:17 51.47649 -0.77911 2995 ft 183 kts 88°
2026-05-05 18:17 51.47652 -0.75869 2996 ft 183 kts 87°
2026-05-05 18:17 51.47657 -0.73823 2999 ft 184 kts 87°
2026-05-05 18:17 51.47665 -0.71799 2982 ft 184 kts 86°
2026-05-05 18:18 51.47672 -0.69718 2741 ft 185 kts 87°
2026-05-05 18:18 51.47679 -0.67689 2483 ft 176 kts 87°
2026-05-05 18:18 51.47685 -0.65777 2253 ft 169 kts 86°
2026-05-05 18:18 51.47694 -0.63907 2035 ft 166 kts 87°
2026-05-05 18:19 51.47700 -0.62055 1797 ft 166 kts 86°
2026-05-05 18:19 51.47706 -0.60232 1573 ft 165 kts 87°
2026-05-05 18:19 51.47727 -0.58390 1325 ft 160 kts 86°
2026-05-05 18:19 51.47733 -0.56653 1050 ft 155 kts 89°
2026-05-05 18:20 51.47693 -0.54939 822 ft 154 kts 88°
2026-05-05 18:20 51.47710 -0.53206 650 ft 149 kts 85°
2026-05-05 18:20 51.47738 -0.51612 464 ft 142 kts 84°
2026-05-05 18:20 51.47745 -0.50053 314 ft 138 kts 87°
2026-05-05 18:21 51.47743 -0.48505 150 ft 140 kts 84°
2026-05-05 18:21 51.47760 -0.47031 93 ft 115 kts 91°
2026-05-05 18:21 51.47763 -0.45964 93 ft 80 kts 88°
2026-05-05 18:21 51.47762 -0.45251 92 ft 46 kts 90°
2026-05-05 18:22 51.47765 -0.44800 96 ft 36 kts 92°
2026-05-05 18:22 51.47717 -0.44450 95 ft 29 kts 114°
2026-05-05 18:22 51.47660 -0.44274 97 ft 10 kts 135°
2026-05-05 18:22 51.47651 -0.44261 94 ft 0 kts 150°
2026-05-05 18:23 51.47636 -0.44253 96 ft 2 kts 193°
2026-05-05 18:23 51.47620 -0.44271 94 ft 7 kts 226°
2026-05-05 18:23 51.47601 -0.44361 92 ft 11 kts 262°
2026-05-05 18:23 51.47593 -0.44505 94 ft 14 kts 266°
2026-05-05 18:24 51.47591 -0.44675 92 ft 16 kts 270°
2026-05-05 18:24 51.47593 -0.44865 95 ft 18 kts 271°
2026-05-05 18:24 51.47595 -0.45084 95 ft 21 kts 271°
2026-05-05 18:24 51.47598 -0.45320 92 ft 22 kts 271°
2026-05-05 18:25 51.47600 -0.45552 92 ft 21 kts 270°
2026-05-05 18:25 51.47598 -0.45713 92 ft 22 kts 268°
2026-05-05 18:25 51.47592 -0.46040 92 ft 23 kts 269°
2026-05-05 18:25 51.47593 -0.46298 95 ft 24 kts 271°
2026-05-05 18:26 51.47594 -0.46554 95 ft 22 kts 270°
2026-05-05 18:26 51.47591 -0.46792 94 ft 19 kts 264°
2026-05-05 18:26 51.47583 -0.47015 95 ft 21 kts 270°
2026-05-05 18:26 51.47583 -0.47256 95 ft 23 kts 270°
2026-05-05 18:27 51.47583 -0.47514 95 ft 22 kts 270°
2026-05-05 18:27 51.47583 -0.47756 95 ft 19 kts 270°
2026-05-05 18:27 51.47558 -0.47860 95 ft 6 kts 194°
2026-05-05 18:27 51.47488 -0.47873 95 ft 13 kts 188°
2026-05-05 18:28 51.47305 -0.47877 92 ft 9 kts 180°
2026-05-05 18:28 51.47264 -0.47876 92 ft 2 kts 180°
2026-05-05 18:28 51.47229 -0.47876 92 ft 9 kts 180°
2026-05-05 18:29 51.47143 -0.47498 96 ft 0 kts 270°